Observation data for Lesley on 02/21/2019      Previous  Date  Next       Current Mesonet Observations  Soil Data  Daily Summary Page  Observations in Plain Language
KLE1 210600Z 12004KT 05/M11 A2986 RMK A01 T00511108  RH  031%=      5-min Rain = 0
KLE1 210601Z 11003KT 05/M11 A2986 RMK A01 T00501108  RH  031%=      5-min Rain = 0
KLE1 210602Z 10003KT 05/M11 A2986 RMK A01 T00511108  RH  031%=      5-min Rain = 0
KLE1 210603Z 10003KT 05/M11 A2986 RMK A01 T00511108  RH  031%=      5-min Rain = 0
KLE1 210604Z 12003KT 05/M11 A2985 RMK A01 T00511108  RH  031%=      5-min Rain = 0
KLE1 210605Z 12003KT 05/M11 A2985 RMK A01 T00511109  RH  031%=      5-min Rain = 0
KLE1 210606Z 13003KT 05/M11 A2986 RMK A01 T00511109  RH  030%=      5-min Rain = 0
KLE1 210607Z 13003KT 05/M11 A2985 RMK A01 T00521108  RH  030%=      5-min Rain = 0
KLE1 210608Z 13003KT 05/M11 A2985 RMK A01 T00521109  RH  030%=      5-min Rain = 0
KLE1 210609Z 12004KT 05/M11 A2985 RMK A01 T00521109  RH  030%=      5-min Rain = 0
KLE1 210610Z 12004KT 05/M11 A2985 RMK A01 T00521108  RH  030%=      5-min Rain = 0
KLE1 210611Z 11004KT 05/M11 A2985 RMK A01 T00521108  RH  031%=      5-min Rain = 0
KLE1 210612Z 12004KT 05/M11 A2986 RMK A01 T00501108  RH  031%=      5-min Rain = 0
KLE1 210613Z 11004KT 05/M11 A2986 RMK A01 T00481108  RH  031%=      5-min Rain = 0
KLE1 210614Z 11004KT 05/M11 A2986 RMK A01 T00471108  RH  032%=      5-min Rain = 0
KLE1 210615Z 10004KT 05/M11 A2986 RMK A01 T00461108  RH  032%=      5-min Rain = 0
KLE1 210616Z 10004KT 05/M11 A2986 RMK A01 T00461107  RH  032%=      5-min Rain = 0
KLE1 210617Z 10004KT 05/M11 A2986 RMK A01 T00451107  RH  032%=      5-min Rain = 0
KLE1 210618Z 09003KT 05/M11 A2986 RMK A01 T00451109  RH  032%=      5-min Rain = 0
KLE1 210619Z 08004KT 05/M11 A2986 RMK A01 T00461108  RH  032%=      5-min Rain = 0
KLE1 210620Z 08004KT 05/M11 A2986 RMK A01 T00461109  RH  032%=      5-min Rain = 0
KLE1 210621Z 08004KT 05/M11 A2986 RMK A01 T00461108  RH  032%=      5-min Rain = 0
KLE1 210622Z 09003KT 05/M11 A2986 RMK A01 T00461108  RH  032%=      5-min Rain = 0
KLE1 210623Z 09003KT 05/M11 A2986 RMK A01 T00461108  RH  032%=      5-min Rain = 0
KLE1 210624Z 09004KT 05/M11 A2986 RMK A01 T00461108  RH  032%=      5-min Rain = 0
KLE1 210625Z 08004KT 05/M11 A2986 RMK A01 T00451108  RH  032%=      5-min Rain = 0
KLE1 210626Z 09004KT 05/M11 A2986 RMK A01 T00461108  RH  032%=      5-min Rain = 0
KLE1 210627Z 08004KT 05/M11 A2986 RMK A01 T00461108  RH  032%=      5-min Rain = 0
KLE1 210628Z 08004KT 05/M11 A2986 RMK A01 T00461107  RH  032%=      5-min Rain = 0
KLE1 210629Z 08004KT 05/M11 A2986 RMK A01 T00461107  RH  032%=      5-min Rain = 0
KLE1 210630Z 09003KT 05/M11 A2986 RMK A01 T00461107  RH  032%=      5-min Rain = 0
KLE1 210631Z 09003KT 05/M11 A2986 RMK A01 T00461108  RH  032%=      5-min Rain = 0
KLE1 210632Z 08003KT 05/M11 A2986 RMK A01 T00461108  RH  032%=      5-min Rain = 0
KLE1 210633Z 09004KT 05/M11 A2986 RMK A01 T00461108  RH  032%=      5-min Rain = 0
KLE1 210634Z 08003KT 05/M11 A2986 RMK A01 T00471108  RH  032%=      5-min Rain = 0
KLE1 210635Z 09004KT 05/M11 A2986 RMK A01 T00471107  RH  032%=      5-min Rain = 0
KLE1 210636Z 09003KT 05/M11 A2986 RMK A01 T00471108  RH  031%=      5-min Rain = 0
KLE1 210637Z 09003KT 05/M11 A2986 RMK A01 T00481108  RH  031%=      5-min Rain = 0
KLE1 210638Z 09003KT 05/M11 A2986 RMK A01 T00481108  RH  031%=      5-min Rain = 0
KLE1 210639Z 08003KT 05/M11 A2986 RMK A01 T00481108  RH  031%=      5-min Rain = 0
KLE1 210640Z 08003KT 05/M11 A2986 RMK A01 T00471108  RH  031%=      5-min Rain = 0
KLE1 210641Z 08003KT 05/M11 A2986 RMK A01 T00471108  RH  031%=      5-min Rain = 0
KLE1 210642Z 07002KT 05/M11 A2986 RMK A01 T00471108  RH  031%=      5-min Rain = 0
KLE1 210643Z 09002KT 05/M11 A2986 RMK A01 T00471109  RH  031%=      5-min Rain = 0
KLE1 210644Z 10001KT 05/M11 A2986 RMK A01 T00461109  RH  031%=      5-min Rain = 0
KLE1 210645Z 09001KT 05/M11 A2986 RMK A01 T00461109  RH  031%=      5-min Rain = 0
KLE1 210646Z 12001KT 05/M11 A2986 RMK A01 T00461109  RH  031%=      5-min Rain = 0
KLE1 210647Z 10002KT 05/M11 A2986 RMK A01 T00471108  RH  031%=      5-min Rain = 0
KLE1 210648Z 11002KT 05/M11 A2986 RMK A01 T00481108  RH  031%=      5-min Rain = 0
KLE1 210649Z 10002KT 05/M11 A2986 RMK A01 T00491108  RH  031%=      5-min Rain = 0
KLE1 210650Z 11002KT 05/M11 A2986 RMK A01 T00491108  RH  031%=      5-min Rain = 0
KLE1 210651Z 10002KT 05/M11 A2986 RMK A01 T00501109  RH  031%=      5-min Rain = 0
KLE1 210652Z 09002KT 05/M11 A2986 RMK A01 T00511108  RH  031%=      5-min Rain = 0
KLE1 210653Z 07002KT 05/M11 A2986 RMK A01 T00511108  RH  031%=      5-min Rain = 0
KLE1 210654Z 07003KT 05/M11 A2986 RMK A01 T00511109  RH  030%=      5-min Rain = 0
KLE1 210655Z 06003KT 05/M11 A2986 RMK A01 T00511109  RH  030%=      5-min Rain = 0
KLE1 210656Z 06003KT 05/M11 A2986 RMK A01 T00501109  RH  031%=      5-min Rain = 0
KLE1 210657Z 05003KT 05/M11 A2986 RMK A01 T00481109  RH  031%=      5-min Rain = 0
KLE1 210658Z 05003KT 05/M11 A2986 RMK A01 T00451109  RH  032%=      5-min Rain = 0
KLE1 210659Z 06003KT 04/M11 A2986 RMK A01 T00431108  RH  032%=      5-min Rain = 0
KLE1 210700Z 06003KT 04/M11 A2986 RMK A01 T00411108  RH  033%=      5-min Rain = 0
KLE1 210701Z 06004KT 04/M11 A2986 RMK A01 T00401108  RH  033%=      5-min Rain = 0
KLE1 210702Z 06004KT 04/M11 A2986 RMK A01 T00401107  RH  033%=      5-min Rain = 0
KLE1 210703Z 06004KT 04/M11 A2986 RMK A01 T00391107  RH  034%=      5-min Rain = 0
KLE1 210704Z 05004KT 04/M11 A2986 RMK A01 T00391106  RH  034%=      5-min Rain = 0
KLE1 210705Z 05004KT 04/M11 A2986 RMK A01 T00391106  RH  034%=      5-min Rain = 0
KLE1 210706Z 05004KT 04/M11 A2986 RMK A01 T00391106  RH  034%=      5-min Rain = 0
KLE1 210707Z 06004KT 04/M11 A2986 RMK A01 T00391105  RH  034%=      5-min Rain = 0
KLE1 210708Z 07004KT 04/M11 A2986 RMK A01 T00391106  RH  034%=      5-min Rain = 0
KLE1 210709Z 07004KT 04/M11 A2986 RMK A01 T00401106  RH  034%=      5-min Rain = 0
KLE1 210710Z 07003KT 04/M11 A2986 RMK A01 T00401106  RH  034%=      5-min Rain = 0
KLE1 210711Z 06003KT 04/M11 A2986 RMK A01 T00401105  RH  034%=      5-min Rain = 0
KLE1 210712Z 06003KT 04/M11 A2986 RMK A01 T00401105  RH  034%=      5-min Rain = 0
KLE1 210713Z 06004KT 04/M11 A2986 RMK A01 T00411105  RH  034%=      5-min Rain = 0
KLE1 210714Z 07003KT 04/M11 A2986 RMK A01 T00411105  RH  034%=      5-min Rain = 0
KLE1 210715Z 07003KT 04/M11 A2986 RMK A01 T00421105  RH  033%=      5-min Rain = 0
KLE1 210716Z 07003KT 04/M11 A2986 RMK A01 T00421105  RH  033%=      5-min Rain = 0
KLE1 210717Z 07003KT 04/M11 A2986 RMK A01 T00431105  RH  033%=      5-min Rain = 0
KLE1 210718Z 07003KT 04/M11 A2986 RMK A01 T00431106  RH  033%=      5-min Rain = 0
KLE1 210719Z 07003KT 04/M11 A2986 RMK A01 T00441105  RH  033%=      5-min Rain = 0
KLE1 210720Z 07003KT 04/M11 A2986 RMK A01 T00441106  RH  033%=      5-min Rain = 0
KLE1 210721Z 07003KT 05/M11 A2986 RMK A01 T00451106  RH  033%=      5-min Rain = 0
KLE1 210722Z 07004KT 05/M11 A2986 RMK A01 T00451106  RH  033%=      5-min Rain = 0
KLE1 210723Z 07004KT 05/M11 A2986 RMK A01 T00461105  RH  033%=      5-min Rain = 0
KLE1 210724Z 06004KT 05/M11 A2986 RMK A01 T00461105  RH  032%=      5-min Rain = 0
KLE1 210725Z 07004KT 05/M11 A2986 RMK A01 T00461105  RH  033%=      5-min Rain = 0
KLE1 210726Z 06004KT 05/M11 A2986 RMK A01 T00451105  RH  033%=      5-min Rain = 0
KLE1 210727Z 07004KT 04/M11 A2986 RMK A01 T00441105  RH  033%=      5-min Rain = 0
KLE1 210728Z 06004KT 04/M10 A2986 RMK A01 T00441104  RH  033%=      5-min Rain = 0
KLE1 210729Z 06005KT 04/M10 A2986 RMK A01 T00441104  RH  033%=      5-min Rain = 0
KLE1 210730Z 06005KT 04/M10 A2986 RMK A01 T00441104  RH  033%=      5-min Rain = 0
KLE1 210731Z 06006KT 04/M10 A2986 RMK A01 T00431104  RH  034%=      5-min Rain = 0
KLE1 210732Z 06006KT 04/M10 A2985 RMK A01 T00421103  RH  034%=      5-min Rain = 0
KLE1 210733Z 06006KT 04/M10 A2985 RMK A01 T00411103  RH  034%=      5-min Rain = 0
KLE1 210734Z 07006KT 04/M10 A2985 RMK A01 T00411102  RH  034%=      5-min Rain = 0
KLE1 210735Z 07006KT 04/M10 A2985 RMK A01 T00411103  RH  034%=      5-min Rain = 0
KLE1 210736Z 07006KT 04/M10 A2985 RMK A01 T00411102  RH  034%=      5-min Rain = 0
KLE1 210737Z 07007KT 04/M10 A2985 RMK A01 T00411102  RH  035%=      5-min Rain = 0
KLE1 210738Z 07007KT 04/M10 A2985 RMK A01 T00411101  RH  035%=      5-min Rain = 0
KLE1 210739Z 07006KT 04/M10 A2985 RMK A01 T00411100  RH  035%=      5-min Rain = 0
KLE1 210740Z 07006KT 04/M10 A2985 RMK A01 T00401100  RH  035%=      5-min Rain = 0
KLE1 210741Z 07006KT 04/M10 A2985 RMK A01 T00401100  RH  035%=      5-min Rain = 0
KLE1 210742Z 07006KT 04/M10 A2985 RMK A01 T00401101  RH  035%=      5-min Rain = 0
KLE1 210743Z 07006KT 04/M10 A2985 RMK A01 T00401101  RH  035%=      5-min Rain = 0
KLE1 210744Z 07006KT 04/M10 A2985 RMK A01 T00411101  RH  035%=      5-min Rain = 0
KLE1 210745Z 07006KT 04/M10 A2985 RMK A01 T00421101  RH  034%=      5-min Rain = 0
KLE1 210746Z 08006KT 04/M10 A2985 RMK A01 T00431102  RH  034%=      5-min Rain = 0
KLE1 210747Z 08006KT 04/M10 A2985 RMK A01 T00431102  RH  034%=      5-min Rain = 0
KLE1 210748Z 08006KT 04/M10 A2985 RMK A01 T00431102  RH  034%=      5-min Rain = 0
KLE1 210749Z 08006KT 04/M10 A2985 RMK A01 T00431101  RH  034%=      5-min Rain = 0
KLE1 210750Z 08006KT 04/M10 A2985 RMK A01 T00431101  RH  034%=      5-min Rain = 0
KLE1 210751Z 08006KT 04/M10 A2985 RMK A01 T00421100  RH  035%=      5-min Rain = 0
KLE1 210752Z 09006KT 04/M10 A2985 RMK A01 T00411100  RH  035%=      5-min Rain = 0
KLE1 210753Z 09006KT 04/M10 A2985 RMK A01 T00401101  RH  035%=      5-min Rain = 0
KLE1 210754Z 09006KT 04/M10 A2985 RMK A01 T00401100  RH  035%=      5-min Rain = 0
KLE1 210755Z 09006KT 04/M10 A2985 RMK A01 T00401100  RH  035%=      5-min Rain = 0
KLE1 210756Z 10006KT 04/M10 A2985 RMK A01 T00401100  RH  035%=      5-min Rain = 0
KLE1 210757Z 09006KT 04/M10 A2985 RMK A01 T00401100  RH  035%=      5-min Rain = 0
KLE1 210758Z 09006KT 04/M10 A2985 RMK A01 T00401100  RH  035%=      5-min Rain = 0
KLE1 210759Z 09006KT 04/M10 A2985 RMK A01 T00401100  RH  035%=      5-min Rain = 0
KLE1 210800Z 09006KT 04/M10 A2985 RMK A01 T00401100  RH  035%=      5-min Rain = 0
KLE1 210801Z 09006KT 04/M10 A2985 RMK A01 T00401100  RH  035%=      5-min Rain = 0
KLE1 210802Z 09006KT 04/M10 A2985 RMK A01 T00401100  RH  035%=      5-min Rain = 0
KLE1 210803Z 09006KT 04/M10 A2985 RMK A01 T00411100  RH  035%=      5-min Rain = 0
KLE1 210804Z 09006KT 04/M10 A2985 RMK A01 T00421100  RH  035%=      5-min Rain = 0
KLE1 210805Z 09006KT 04/M10 A2986 RMK A01 T00411100  RH  035%=      5-min Rain = 0
KLE1 210806Z 09005KT 04/M10 A2986 RMK A01 T00411100  RH  035%=      5-min Rain = 0
KLE1 210807Z 09005KT 04/M10 A2986 RMK A01 T00411100  RH  035%=      5-min Rain = 0
KLE1 210808Z 09005KT 04/M10 A2986 RMK A01 T00401100  RH  035%=      5-min Rain = 0
KLE1 210809Z 09005KT 04/M10 A2986 RMK A01 T00401100  RH  035%=      5-min Rain = 0
KLE1 210810Z 09005KT 04/M10 A2986 RMK A01 T00401100  RH  035%=      5-min Rain = 0
KLE1 210811Z 09005KT 04/M10 A2986 RMK A01 T00411100  RH  035%=      5-min Rain = 0
KLE1 210812Z 08005KT 04/M10 A2986 RMK A01 T00411100  RH  035%=      5-min Rain = 0
KLE1 210813Z 08006KT 04/M10 A2986 RMK A01 T00411100  RH  035%=      5-min Rain = 0
KLE1 210814Z 08006KT 04/M10 A2986 RMK A01 T00411100  RH  035%=      5-min Rain = 0
KLE1 210815Z 08006KT 04/M10 A2986 RMK A01 T00411100  RH  035%=      5-min Rain = 0
KLE1 210816Z 08006KT 04/M10 A2986 RMK A01 T00401100  RH  035%=      5-min Rain = 0
KLE1 210817Z 08006KT 04/M10 A2986 RMK A01 T00401099  RH  036%=      5-min Rain = 0
KLE1 210818Z 08006KT 04/M10 A2986 RMK A01 T00401099  RH  036%=      5-min Rain = 0
KLE1 210819Z 08006KT 04/M10 A2986 RMK A01 T00401099  RH  036%=      5-min Rain = 0
KLE1 210820Z 08006KT 04/M10 A2986 RMK A01 T00391099  RH  036%=      5-min Rain = 0
KLE1 210821Z 08005KT 04/M10 A2986 RMK A01 T00391099  RH  036%=      5-min Rain = 0
KLE1 210822Z 08006KT 04/M10 A2986 RMK A01 T00391099  RH  036%=      5-min Rain = 0
KLE1 210823Z 08006KT 04/M10 A2986 RMK A01 T00381099  RH  036%=      5-min Rain = 0
KLE1 210824Z 08006KT 04/M10 A2986 RMK A01 T00381099  RH  036%=      5-min Rain = 0
KLE1 210825Z 08006KT 04/M10 A2986 RMK A01 T00391099  RH  036%=      5-min Rain = 0
KLE1 210826Z 08005KT 04/M10 A2986 RMK A01 T00391098  RH  036%=      5-min Rain = 0
KLE1 210827Z 08005KT 04/M10 A2986 RMK A01 T00391098  RH  036%=      5-min Rain = 0
KLE1 210828Z 07005KT 04/M10 A2986 RMK A01 T00391098  RH  036%=      5-min Rain = 0
KLE1 210829Z 07006KT 04/M10 A2986 RMK A01 T00391098  RH  036%=      5-min Rain = 0
KLE1 210830Z 07005KT 04/M10 A2986 RMK A01 T00391098  RH  036%=      5-min Rain = 0
KLE1 210831Z 07005KT 04/M10 A2986 RMK A01 T00391097  RH  036%=      5-min Rain = 0
KLE1 210832Z 08005KT 04/M10 A2986 RMK A01 T00391097  RH  036%=      5-min Rain = 0
KLE1 210833Z 08005KT 04/M10 A2986 RMK A01 T00381097  RH  037%=      5-min Rain = 0
KLE1 210834Z 08005KT 04/M10 A2986 RMK A01 T00381096  RH  037%=      5-min Rain = 0
KLE1 210835Z 08006KT 04/M10 A2986 RMK A01 T00371097  RH  037%=      5-min Rain = 0
KLE1 210836Z 07006KT 04/M10 A2986 RMK A01 T00371097  RH  037%=      5-min Rain = 0
KLE1 210837Z 08006KT 04/M10 A2986 RMK A01 T00371096  RH  037%=      5-min Rain = 0
KLE1 210838Z 07006KT 04/M10 A2986 RMK A01 T00371096  RH  037%=      5-min Rain = 0
KLE1 210839Z 07006KT 04/M10 A2986 RMK A01 T00361095  RH  038%=      5-min Rain = 0
KLE1 210840Z 07006KT 04/M10 A2986 RMK A01 T00361095  RH  038%=      5-min Rain = 0
KLE1 210841Z 07005KT 04/M10 A2986 RMK A01 T00361095  RH  038%=      5-min Rain = 0
KLE1 210842Z 07005KT 04/M10 A2986 RMK A01 T00361095  RH  038%=      5-min Rain = 0
KLE1 210843Z 06005KT 04/M09 A2986 RMK A01 T00361094  RH  038%=      5-min Rain = 0
KLE1 210844Z 07005KT 04/M10 A2986 RMK A01 T00371095  RH  038%=      5-min Rain = 0
KLE1 210845Z 07005KT 04/M09 A2986 RMK A01 T00381094  RH  038%=      5-min Rain = 0
KLE1 210846Z 07005KT 04/M09 A2986 RMK A01 T00381094  RH  037%=      5-min Rain = 0
KLE1 210847Z 07006KT 04/M09 A2986 RMK A01 T00381094  RH  038%=      5-min Rain = 0
KLE1 210848Z 07005KT 04/M09 A2986 RMK A01 T00381094  RH  038%=      5-min Rain = 0
KLE1 210849Z 07006KT 04/M09 A2986 RMK A01 T00381094  RH  038%=      5-min Rain = 0
KLE1 210850Z 07006KT 04/M09 A2986 RMK A01 T00381094  RH  038%=      5-min Rain = 0
KLE1 210851Z 07006KT 04/M09 A2986 RMK A01 T00381093  RH  038%=      5-min Rain = 0
KLE1 210852Z 07006KT 04/M09 A2986 RMK A01 T00381093  RH  038%=      5-min Rain = 0
KLE1 210853Z 07006KT 04/M09 A2986 RMK A01 T00381093  RH  038%=      5-min Rain = 0
KLE1 210854Z 07006KT 04/M09 A2986 RMK A01 T00381093  RH  038%=      5-min Rain = 0
KLE1 210855Z 07006KT 04/M09 A2986 RMK A01 T00381093  RH  038%=      5-min Rain = 0
KLE1 210856Z 07006KT 04/M09 A2986 RMK A01 T00381092  RH  038%=      5-min Rain = 0
KLE1 210857Z 07006KT 04/M09 A2986 RMK A01 T00381092  RH  038%=      5-min Rain = 0
KLE1 210858Z 07006KT 04/M09 A2986 RMK A01 T00371092  RH  038%=      5-min Rain = 0
KLE1 210859Z 08005KT 04/M09 A2986 RMK A01 T00371091  RH  039%=      5-min Rain = 0
KLE1 210900Z 08006KT 04/M09 A2986 RMK A01 T00361091  RH  039%=      5-min Rain = 0
KLE1 210901Z 08006KT 04/M09 A2986 RMK A01 T00361091  RH  039%=      5-min Rain = 0
KLE1 210902Z 08005KT 04/M09 A2986 RMK A01 T00351091  RH  039%=      5-min Rain = 0
KLE1 210903Z 08005KT 04/M09 A2986 RMK A01 T00351091  RH  039%=      5-min Rain = 0
KLE1 210904Z 07005KT 04/M09 A2986 RMK A01 T00351090  RH  039%=      5-min Rain = 0
KLE1 210905Z 08005KT 04/M09 A2986 RMK A01 T00351090  RH  039%=      5-min Rain = 0
KLE1 210906Z 08006KT 04/M09 A2986 RMK A01 T00361090  RH  039%=      5-min Rain = 0
KLE1 210907Z 07006KT 04/M09 A2986 RMK A01 T00361090  RH  039%=      5-min Rain = 0
KLE1 210908Z 08005KT 04/M09 A2986 RMK A01 T00371089  RH  039%=      5-min Rain = 0
KLE1 210909Z 07006KT 04/M09 A2986 RMK A01 T00371089  RH  039%=      5-min Rain = 0
KLE1 210910Z 08005KT 04/M09 A2986 RMK A01 T00371090  RH  039%=      5-min Rain = 0
KLE1 210911Z 07005KT 04/M09 A2986 RMK A01 T00381089  RH  039%=      5-min Rain = 0
KLE1 210912Z 08005KT 04/M09 A2986 RMK A01 T00371089  RH  039%=      5-min Rain = 0
KLE1 210913Z 08005KT 04/M09 A2986 RMK A01 T00371089  RH  039%=      5-min Rain = 0
KLE1 210914Z 08004KT 04/M09 A2986 RMK A01 T00371089  RH  039%=      5-min Rain = 0
KLE1 210915Z 08004KT 04/M09 A2986 RMK A01 T00361089  RH  039%=      5-min Rain = 0
KLE1 210916Z 08005KT 04/M09 A2986 RMK A01 T00361088  RH  040%=      5-min Rain = 0
KLE1 210917Z 07005KT 04/M09 A2986 RMK A01 T00361088  RH  040%=      5-min Rain = 0
KLE1 210918Z 07005KT 04/M09 A2986 RMK A01 T00361088  RH  040%=      5-min Rain = 0
KLE1 210919Z 07005KT 04/M09 A2986 RMK A01 T00351088  RH  040%=      5-min Rain = 0
KLE1 210920Z 07005KT 04/M09 A2986 RMK A01 T00361087  RH  040%=      5-min Rain = 0
KLE1 210921Z 07005KT 04/M09 A2986 RMK A01 T00361087  RH  040%=      5-min Rain = 0
KLE1 210922Z 07006KT 04/M09 A2986 RMK A01 T00351087  RH  040%=      5-min Rain = 0
KLE1 210923Z 07006KT 04/M09 A2986 RMK A01 T00351087  RH  040%=      5-min Rain = 0
KLE1 210924Z 07005KT 04/M09 A2986 RMK A01 T00361086  RH  041%=      5-min Rain = 0
KLE1 210925Z 07006KT 04/M09 A2986 RMK A01 T00351087  RH  041%=      5-min Rain = 0
KLE1 210926Z 08006KT 04/M09 A2986 RMK A01 T00351086  RH  041%=      5-min Rain = 0
KLE1 210927Z 08006KT 04/M09 A2986 RMK A01 T00351086  RH  041%=      5-min Rain = 0
KLE1 210928Z 08007KT 03/M09 A2986 RMK A01 T00341086  RH  041%=      5-min Rain = 0
KLE1 210929Z 08006KT 03/M09 A2986 RMK A01 T00341086  RH  041%=      5-min Rain = 0
KLE1 210930Z 08006KT 04/M09 A2986 RMK A01 T00351085  RH  041%=      5-min Rain = 0
KLE1 210931Z 08007KT 03/M09 A2986 RMK A01 T00341085  RH  041%=      5-min Rain = 0
KLE1 210932Z 08007KT 03/M09 A2986 RMK A01 T00341085  RH  041%=      5-min Rain = 0
KLE1 210933Z 08007KT 03/M09 A2986 RMK A01 T00341086  RH  041%=      5-min Rain = 0
KLE1 210934Z 08007KT 03/M09 A2986 RMK A01 T00341086  RH  041%=      5-min Rain = 0
KLE1 210935Z 08007KT 03/M09 A2986 RMK A01 T00341086  RH  041%=      5-min Rain = 0
KLE1 210936Z 08007KT 04/M09 A2986 RMK A01 T00351085  RH  041%=      5-min Rain = 0
KLE1 210937Z 08007KT 04/M09 A2986 RMK A01 T00361085  RH  041%=      5-min Rain = 0
KLE1 210938Z 08007KT 04/M09 A2986 RMK A01 T00361085  RH  041%=      5-min Rain = 0
KLE1 210939Z 08007KT 04/M09 A2986 RMK A01 T00361085  RH  041%=      5-min Rain = 0
KLE1 210940Z 08007KT 04/M09 A2986 RMK A01 T00361085  RH  041%=      5-min Rain = 0
KLE1 210941Z 08007KT 04/M09 A2986 RMK A01 T00361085  RH  041%=      5-min Rain = 0
KLE1 210942Z 08007KT 04/M09 A2986 RMK A01 T00361085  RH  041%=      5-min Rain = 0
KLE1 210943Z 08007KT 04/M09 A2986 RMK A01 T00361085  RH  041%=      5-min Rain = 0
KLE1 210944Z 08007KT 04/M09 A2986 RMK A01 T00361085  RH  041%=      5-min Rain = 0
KLE1 210945Z 08006KT 04/M08 A2986 RMK A01 T00371084  RH  041%=      5-min Rain = 0
KLE1 210946Z 08007KT 04/M08 A2986 RMK A01 T00371083  RH  041%=      5-min Rain = 0
KLE1 210947Z 07007KT 04/M08 A2986 RMK A01 T00371083  RH  041%=      5-min Rain = 0
KLE1 210948Z 08006KT 04/M08 A2986 RMK A01 T00371083  RH  041%=      5-min Rain = 0
KLE1 210949Z 08007KT 04/M08 A2986 RMK A01 T00361083  RH  042%=      5-min Rain = 0
KLE1 210950Z 08007KT 04/M08 A2986 RMK A01 T00351083  RH  042%=      5-min Rain = 0
KLE1 210951Z 08007KT 04/M08 A2986 RMK A01 T00351082  RH  042%=      5-min Rain = 0
KLE1 210952Z 08008KT 03/M08 A2986 RMK A01 T00341083  RH  042%=      5-min Rain = 0
KLE1 210953Z 08009KT 03/M08 A2986 RMK A01 T00341083  RH  042%=      5-min Rain = 0
KLE1 210954Z 08009KT 04/M08 A2986 RMK A01 T00351083  RH  042%=      5-min Rain = 0
KLE1 210955Z 08009KT 04/M08 A2986 RMK A01 T00351083  RH  042%=      5-min Rain = 0
KLE1 210956Z 08008KT 04/M08 A2986 RMK A01 T00351083  RH  042%=      5-min Rain = 0
KLE1 210957Z 08008KT 04/M08 A2986 RMK A01 T00361083  RH  042%=      5-min Rain = 0
KLE1 210958Z 08008KT 04/M08 A2986 RMK A01 T00361083  RH  042%=      5-min Rain = 0
KLE1 210959Z 08008KT 04/M08 A2986 RMK A01 T00361082  RH  042%=      5-min Rain = 0
KLE1 211000Z 08007KT 04/M08 A2986 RMK A01 T00361082  RH  042%=      5-min Rain = 0
KLE1 211001Z 08007KT 04/M08 A2986 RMK A01 T00351082  RH  042%=      5-min Rain = 0
KLE1 211002Z 08007KT 04/M08 A2986 RMK A01 T00351082  RH  042%=      5-min Rain = 0
KLE1 211003Z 08008KT 04/M08 A2986 RMK A01 T00351082  RH  042%=      5-min Rain = 0
KLE1 211004Z 08007KT 04/M08 A2986 RMK A01 T00361082  RH  042%=      5-min Rain = 0
KLE1 211005Z 08007KT 04/M08 A2986 RMK A01 T00361082  RH  042%=      5-min Rain = 0
KLE1 211006Z 08007KT 04/M08 A2986 RMK A01 T00361081  RH  042%=      5-min Rain = 0
KLE1 211007Z 09007KT 04/M08 A2986 RMK A01 T00361081  RH  042%=      5-min Rain = 0
KLE1 211008Z 09007KT 04/M08 A2986 RMK A01 T00361081  RH  042%=      5-min Rain = 0
KLE1 211009Z 09007KT 04/M08 A2986 RMK A01 T00361081  RH  042%=      5-min Rain = 0
KLE1 211010Z 09007KT 04/M08 A2986 RMK A01 T00361081  RH  042%=      5-min Rain = 0
KLE1 211011Z 09007KT 04/M08 A2987 RMK A01 T00361081  RH  042%=      5-min Rain = 0
KLE1 211012Z 09007KT 04/M08 A2987 RMK A01 T00361081  RH  042%=      5-min Rain = 0
KLE1 211013Z 09008KT 04/M08 A2987 RMK A01 T00361081  RH  042%=      5-min Rain = 0
KLE1 211014Z 09007KT 04/M08 A2987 RMK A01 T00361081  RH  042%=      5-min Rain = 0
KLE1 211015Z 09007KT 04/M08 A2987 RMK A01 T00361081  RH  042%=      5-min Rain = 0
KLE1 211016Z 09007KT 04/M08 A2987 RMK A01 T00361081  RH  042%=      5-min Rain = 0
KLE1 211017Z 10007KT 04/M08 A2987 RMK A01 T00361081  RH  042%=      5-min Rain = 0
KLE1 211018Z 09007KT 04/M08 A2987 RMK A01 T00361081  RH  042%=      5-min Rain = 0
KLE1 211019Z 09007KT 04/M08 A2987 RMK A01 T00351080  RH  042%=      5-min Rain = 0
KLE1 211020Z 09007KT 04/M08 A2987 RMK A01 T00351080  RH  043%=      5-min Rain = 0
KLE1 211021Z 09006KT 04/M08 A2987 RMK A01 T00351080  RH  043%=      5-min Rain = 0
KLE1 211022Z 09007KT 04/M08 A2987 RMK A01 T00351080  RH  043%=      5-min Rain = 0
KLE1 211023Z 09007KT 04/M08 A2987 RMK A01 T00351079  RH  043%=      5-min Rain = 0
KLE1 211024Z 09006KT 03/M08 A2987 RMK A01 T00341079  RH  043%=      5-min Rain = 0
KLE1 211025Z 09006KT 04/M08 A2987 RMK A01 T00351079  RH  043%=      5-min Rain = 0
KLE1 211026Z 09006KT 04/M08 A2987 RMK A01 T00351078  RH  043%=      5-min Rain = 0
KLE1 211027Z 09006KT 03/M08 A2987 RMK A01 T00341079  RH  043%=      5-min Rain = 0
KLE1 211028Z 09006KT 03/M08 A2987 RMK A01 T00341079  RH  043%=      5-min Rain = 0
KLE1 211029Z 09006KT 03/M08 A2987 RMK A01 T00341079  RH  043%=      5-min Rain = 0
KLE1 211030Z 09005KT 03/M08 A2987 RMK A01 T00341079  RH  043%=      5-min Rain = 0
KLE1 211031Z 09006KT 03/M08 A2987 RMK A01 T00341078  RH  043%=      5-min Rain = 0
KLE1 211032Z 10006KT 04/M08 A2987 RMK A01 T00351078  RH  043%=      5-min Rain = 0
KLE1 211033Z 10005KT 04/M08 A2987 RMK A01 T00351078  RH  043%=      5-min Rain = 0
KLE1 211034Z 10006KT 04/M08 A2987 RMK A01 T00351078  RH  043%=      5-min Rain = 0
KLE1 211035Z 10007KT 04/M08 A2987 RMK A01 T00361078  RH  043%=      5-min Rain = 0
KLE1 211036Z 10007KT 04/M08 A2987 RMK A01 T00371078  RH  043%=      5-min Rain = 0
KLE1 211037Z 11007KT 04/M08 A2987 RMK A01 T00381078  RH  043%=      5-min Rain = 0
KLE1 211038Z 11007KT 04/M08 A2987 RMK A01 T00381077  RH  043%=      5-min Rain = 0
KLE1 211039Z 11008KT 04/M08 A2987 RMK A01 T00391077  RH  042%=      5-min Rain = 0
KLE1 211040Z 11008KT 04/M08 A2987 RMK A01 T00401077  RH  042%=      5-min Rain = 0
KLE1 211041Z 10007KT 04/M08 A2987 RMK A01 T00411077  RH  042%=      5-min Rain = 0
KLE1 211042Z 10007KT 04/M08 A2987 RMK A01 T00421077  RH  042%=      5-min Rain = 0
KLE1 211043Z 10008KT 04/M08 A2987 RMK A01 T00411078  RH  042%=      5-min Rain = 0
KLE1 211044Z 11007KT 04/M08 A2987 RMK A01 T00421077  RH  042%=      5-min Rain = 0
KLE1 211045Z 10007KT 04/M08 A2987 RMK A01 T00421077  RH  042%=      5-min Rain = 0
KLE1 211046Z 11007KT 04/M08 A2987 RMK A01 T00421078  RH  041%=      5-min Rain = 0
KLE1 211047Z 11007KT 04/M08 A2987 RMK A01 T00421078  RH  041%=      5-min Rain = 0
KLE1 211048Z 11007KT 04/M08 A2987 RMK A01 T00421077  RH  041%=      5-min Rain = 0
KLE1 211049Z 11007KT 04/M08 A2987 RMK A01 T00431077  RH  041%=      5-min Rain = 0
KLE1 211050Z 11007KT 04/M08 A2987 RMK A01 T00431077  RH  041%=      5-min Rain = 0
KLE1 211051Z 11007KT 04/M08 A2987 RMK A01 T00441077  RH  041%=      5-min Rain = 0
KLE1 211052Z 11008KT 04/M08 A2987 RMK A01 T00441077  RH  041%=      5-min Rain = 0
KLE1 211053Z 11008KT 05/M08 A2987 RMK A01 T00451077  RH  041%=      5-min Rain = 0
KLE1 211054Z 12007KT 05/M08 A2987 RMK A01 T00451077  RH  041%=      5-min Rain = 0
KLE1 211055Z 12008KT 05/M08 A2987 RMK A01 T00461076  RH  041%=      5-min Rain = 0
KLE1 211056Z 12007KT 05/M08 A2987 RMK A01 T00461076  RH  041%=      5-min Rain = 0
KLE1 211057Z 12007KT 05/M08 A2987 RMK A01 T00461076  RH  041%=      5-min Rain = 0
KLE1 211058Z 12008KT 05/M08 A2987 RMK A01 T00471076  RH  041%=      5-min Rain = 0
KLE1 211059Z 12007KT 05/M08 A2987 RMK A01 T00471076  RH  040%=      5-min Rain = 0
KLE1 211100Z 12007KT 05/M08 A2987 RMK A01 T00471076  RH  040%=      5-min Rain = 0
KLE1 211101Z 12007KT 05/M08 A2988 RMK A01 T00471076  RH  040%=      5-min Rain = 0
KLE1 211102Z 12007KT 05/M08 A2987 RMK A01 T00481077  RH  040%=      5-min Rain = 0
KLE1 211103Z 12007KT 05/M08 A2987 RMK A01 T00481077  RH  040%=      5-min Rain = 0
KLE1 211104Z 12007KT 05/M08 A2987 RMK A01 T00491076  RH  040%=      5-min Rain = 0
KLE1 211105Z 12006KT 05/M08 A2987 RMK A01 T00491076  RH  040%=      5-min Rain = 0
KLE1 211106Z 11005KT 05/M08 A2987 RMK A01 T00491076  RH  040%=      5-min Rain = 0
KLE1 211107Z 12006KT 05/M08 A2987 RMK A01 T00491076  RH  040%=      5-min Rain = 0
KLE1 211108Z 12006KT 05/M08 A2987 RMK A01 T00491076  RH  040%=      5-min Rain = 0
KLE1 211109Z 12006KT 05/M08 A2988 RMK A01 T00491076  RH  040%=      5-min Rain = 0
KLE1 211110Z 12005KT 05/M08 A2987 RMK A01 T00491076  RH  040%=      5-min Rain = 0
KLE1 211111Z 12005KT 05/M08 A2987 RMK A01 T00491076  RH  040%=      5-min Rain = 0
KLE1 211112Z 12005KT 05/M08 A2988 RMK A01 T00491076  RH  040%=      5-min Rain = 0
KLE1 211113Z 12005KT 05/M08 A2988 RMK A01 T00491076  RH  040%=      5-min Rain = 0
KLE1 211114Z 11006KT 05/M08 A2988 RMK A01 T00491076  RH  040%=      5-min Rain = 0
KLE1 211115Z 11007KT 05/M08 A2987 RMK A01 T00491076  RH  040%=      5-min Rain = 0
KLE1 211116Z 11007KT 05/M08 A2987 RMK A01 T00491076  RH  040%=      5-min Rain = 0
KLE1 211117Z 11007KT 05/M08 A2987 RMK A01 T00491076  RH  040%=      5-min Rain = 0
KLE1 211118Z 10007KT 05/M08 A2987 RMK A01 T00501075  RH  040%=      5-min Rain = 0
KLE1 211119Z 11007KT 05/M08 A2987 RMK A01 T00501075  RH  040%=      5-min Rain = 0
KLE1 211120Z 11007KT 05/M08 A2987 RMK A01 T00501075  RH  040%=      5-min Rain = 0
KLE1 211121Z 11008KT 05/M08 A2987 RMK A01 T00491075  RH  040%=      5-min Rain = 0
KLE1 211122Z 11008KT 05/M08 A2987 RMK A01 T00491075  RH  040%=      5-min Rain = 0
KLE1 211123Z 11008KT 05/M07 A2987 RMK A01 T00491074  RH  040%=      5-min Rain = 0
KLE1 211124Z 11008KT 05/M07 A2987 RMK A01 T00511074  RH  040%=      5-min Rain = 0
KLE1 211125Z 10008KT 05/M07 A2987 RMK A01 T00511074  RH  040%=      5-min Rain = 0
KLE1 211126Z 10008KT 05/M07 A2987 RMK A01 T00511074  RH  040%=      5-min Rain = 0
KLE1 211127Z 10008KT 05/M07 A2987 RMK A01 T00521074  RH  040%=      5-min Rain = 0
KLE1 211128Z 10007KT 05/M07 A2987 RMK A01 T00521074  RH  040%=      5-min Rain = 0
KLE1 211129Z 10007KT 05/M07 A2987 RMK A01 T00521074  RH  040%=      5-min Rain = 0
KLE1 211130Z 10007KT 05/M07 A2987 RMK A01 T00521074  RH  040%=      5-min Rain = 0
KLE1 211131Z 10006KT 05/M07 A2987 RMK A01 T00521074  RH  040%=      5-min Rain = 0
KLE1 211132Z 10006KT 05/M07 A2987 RMK A01 T00531074  RH  039%=      5-min Rain = 0
KLE1 211133Z 10008KT 05/M08 A2987 RMK A01 T00521075  RH  039%=      5-min Rain = 0
KLE1 211134Z 09008KT 05/M08 A2987 RMK A01 T00531075  RH  039%=      5-min Rain = 0
KLE1 211135Z 09008KT 05/M07 A2987 RMK A01 T00531074  RH  039%=      5-min Rain = 0
KLE1 211136Z 09008KT 05/M07 A2987 RMK A01 T00521074  RH  040%=      5-min Rain = 0
KLE1 211137Z 09008KT 05/M07 A2987 RMK A01 T00511074  RH  040%=      5-min Rain = 0
KLE1 211138Z 09008KT 05/M07 A2987 RMK A01 T00491074  RH  040%=      5-min Rain = 0
KLE1 211139Z 09008KT 05/M07 A2987 RMK A01 T00491074  RH  041%=      5-min Rain = 0
KLE1 211140Z 09008KT 05/M07 A2987 RMK A01 T00481074  RH  041%=      5-min Rain = 0
KLE1 211141Z 09008KT 05/M07 A2987 RMK A01 T00481074  RH  041%=      5-min Rain = 0
KLE1 211142Z 09008KT 05/M07 A2987 RMK A01 T00471073  RH  041%=      5-min Rain = 0
KLE1 211143Z 09008KT 05/M07 A2987 RMK A01 T00471073  RH  041%=      5-min Rain = 0
KLE1 211144Z 08007KT 05/M07 A2987 RMK A01 T00471073  RH  041%=      5-min Rain = 0
KLE1 211145Z 08008KT 05/M07 A2988 RMK A01 T00471073  RH  042%=      5-min Rain = 0
KLE1 211146Z 08008KT 05/M07 A2988 RMK A01 T00471073  RH  042%=      5-min Rain = 0
KLE1 211147Z 08008KT 05/M07 A2987 RMK A01 T00461073  RH  042%=      5-min Rain = 0
KLE1 211148Z 08008KT 05/M07 A2987 RMK A01 T00461073  RH  042%=      5-min Rain = 0
KLE1 211149Z 08008KT 05/M07 A2988 RMK A01 T00461073  RH  042%=      5-min Rain = 0
KLE1 211150Z 08008KT 05/M07 A2988 RMK A01 T00461073  RH  042%=      5-min Rain = 0
KLE1 211151Z 08008KT 05/M07 A2988 RMK A01 T00461073  RH  042%=      5-min Rain = 0
KLE1 211152Z 08007KT 05/M07 A2988 RMK A01 T00461072  RH  042%=      5-min Rain = 0
KLE1 211153Z 07008KT 05/M07 A2988 RMK A01 T00461072  RH  042%=      5-min Rain = 0
KLE1 211154Z 08008KT 05/M07 A2988 RMK A01 T00461073  RH  042%=      5-min Rain = 0
KLE1 211155Z 07008KT 05/M07 A2988 RMK A01 T00461072  RH  042%=      5-min Rain = 0
KLE1 211156Z 07007KT 05/M07 A2988 RMK A01 T00461073  RH  042%=      5-min Rain = 0
KLE1 211157Z 07008KT 05/M07 A2987 RMK A01 T00461072  RH  042%=      5-min Rain = 0
KLE1 211158Z 07008KT 05/M07 A2987 RMK A01 T00461072  RH  042%=      5-min Rain = 0
KLE1 211159Z 07008KT 05/M07 A2988 RMK A01 T00461072  RH  042%=      5-min Rain = 0
KLE1 211200Z 07008KT 05/M07 A2988 RMK A01 T00461072  RH  042%=      5-min Rain = 0
KLE1 211201Z 07007KT 05/M07 A2988 RMK A01 T00471072  RH  042%=      5-min Rain = 0
KLE1 211202Z 07007KT 05/M07 A2988 RMK A01 T00471072  RH  042%=      5-min Rain = 0
KLE1 211203Z 06007KT 05/M07 A2988 RMK A01 T00471072  RH  042%=      5-min Rain = 0
KLE1 211204Z 06008KT 05/M07 A2987 RMK A01 T00471073  RH  042%=      5-min Rain = 0
KLE1 211205Z 06008KT 05/M07 A2987 RMK A01 T00471073  RH  041%=      5-min Rain = 0
KLE1 211206Z 06008KT 05/M07 A2987 RMK A01 T00481073  RH  041%=      5-min Rain = 0
KLE1 211207Z 07008KT 05/M07 A2987 RMK A01 T00491072  RH  041%=      5-min Rain = 0
KLE1 211208Z 07009KT 05/M07 A2987 RMK A01 T00481073  RH  041%=      5-min Rain = 0
KLE1 211209Z 07008KT 05/M07 A2987 RMK A01 T00491073  RH  041%=      5-min Rain = 0
KLE1 211210Z 07009KT 05/M07 A2987 RMK A01 T00491073  RH  041%=      5-min Rain = 0
KLE1 211211Z 07008KT 05/M07 A2987 RMK A01 T00491073  RH  041%=      5-min Rain = 0
KLE1 211212Z 06008KT 05/M07 A2987 RMK A01 T00491073  RH  041%=      5-min Rain = 0
KLE1 211213Z 07008KT 05/M07 A2987 RMK A01 T00491073  RH  041%=      5-min Rain = 0
KLE1 211214Z 07008KT 05/M07 A2987 RMK A01 T00491073  RH  041%=      5-min Rain = 0
KLE1 211215Z 07008KT 05/M07 A2987 RMK A01 T00481073  RH  041%=      5-min Rain = 0
KLE1 211216Z 07009KT 05/M07 A2987 RMK A01 T00481072  RH  041%=      5-min Rain = 0
KLE1 211217Z 07008KT 05/M07 A2987 RMK A01 T00481072  RH  041%=      5-min Rain = 0
KLE1 211218Z 07007KT 05/M07 A2987 RMK A01 T00481072  RH  041%=      5-min Rain = 0
KLE1 211219Z 07008KT 05/M07 A2987 RMK A01 T00481073  RH  041%=      5-min Rain = 0
KLE1 211220Z 08008KT 05/M07 A2987 RMK A01 T00481072  RH  041%=      5-min Rain = 0
KLE1 211221Z 08008KT 05/M07 A2987 RMK A01 T00471072  RH  042%=      5-min Rain = 0
KLE1 211222Z 08007KT 05/M07 A2987 RMK A01 T00471072  RH  042%=      5-min Rain = 0
KLE1 211223Z 08008KT 05/M07 A2987 RMK A01 T00461072  RH  042%=      5-min Rain = 0
KLE1 211224Z 08008KT 05/M07 A2987 RMK A01 T00461072  RH  042%=      5-min Rain = 0
KLE1 211225Z 08008KT 05/M07 A2987 RMK A01 T00461072  RH  042%=      5-min Rain = 0
KLE1 211226Z 08008KT 05/M07 A2988 RMK A01 T00451072  RH  042%=      5-min Rain = 0
KLE1 211227Z 08007KT 05/M07 A2988 RMK A01 T00451072  RH  042%=      5-min Rain = 0
KLE1 211228Z 08007KT 05/M07 A2988 RMK A01 T00451072  RH  042%=      5-min Rain = 0
KLE1 211229Z 08008KT 05/M07 A2988 RMK A01 T00451072  RH  042%=      5-min Rain = 0
KLE1 211230Z 08007KT 05/M07 A2988 RMK A01 T00451072  RH  042%=      5-min Rain = 0
KLE1 211231Z 08008KT 05/M07 A2988 RMK A01 T00451071  RH  042%=      5-min Rain = 0
KLE1 211232Z 08007KT 05/M07 A2988 RMK A01 T00451071  RH  043%=      5-min Rain = 0
KLE1 211233Z 08008KT 05/M07 A2988 RMK A01 T00451071  RH  043%=      5-min Rain = 0
KLE1 211234Z 07008KT 05/M07 A2988 RMK A01 T00451071  RH  043%=      5-min Rain = 0
KLE1 211235Z 07008KT 05/M07 A2988 RMK A01 T00451071  RH  043%=      5-min Rain = 0
KLE1 211236Z 07008KT 04/M07 A2988 RMK A01 T00441070  RH  043%=      5-min Rain = 0
KLE1 211237Z 07008KT 04/M07 A2988 RMK A01 T00441070  RH  043%=      5-min Rain = 0
KLE1 211238Z 07008KT 04/M07 A2987 RMK A01 T00441070  RH  043%=      5-min Rain = 0
KLE1 211239Z 07008KT 04/M07 A2987 RMK A01 T00441070  RH  043%=      5-min Rain = 0
KLE1 211240Z 07008KT 04/M07 A2987 RMK A01 T00441070  RH  043%=      5-min Rain = 0
KLE1 211241Z 06008KT 04/M07 A2987 RMK A01 T00441069  RH  043%=      5-min Rain = 0
KLE1 211242Z 06008KT 04/M07 A2987 RMK A01 T00441069  RH  043%=      5-min Rain = 0
KLE1 211243Z 06008KT 04/M07 A2987 RMK A01 T00441069  RH  043%=      5-min Rain = 0
KLE1 211244Z 06008KT 04/M07 A2987 RMK A01 T00441069  RH  043%=      5-min Rain = 0
KLE1 211245Z 07008KT 04/M07 A2987 RMK A01 T00441069  RH  044%=      5-min Rain = 0
KLE1 211246Z 07008KT 04/M07 A2987 RMK A01 T00441069  RH  044%=      5-min Rain = 0
KLE1 211247Z 07008KT 04/M07 A2987 RMK A01 T00441069  RH  044%=      5-min Rain = 0
KLE1 211248Z 07009KT 04/M07 A2987 RMK A01 T00441069  RH  044%=      5-min Rain = 0
KLE1 211249Z 07009KT 04/M07 A2987 RMK A01 T00441068  RH  044%=      5-min Rain = 0
KLE1 211250Z 08009KT 04/M07 A2987 RMK A01 T00441068  RH  044%=      5-min Rain = 0
KLE1 211251Z 07010KT 04/M07 A2987 RMK A01 T00441068  RH  044%=      5-min Rain = 0
KLE1 211252Z 07010KT 04/M07 A2987 RMK A01 T00441068  RH  044%=      5-min Rain = 0
KLE1 211253Z 08009KT 04/M07 A2987 RMK A01 T00441068  RH  044%=      5-min Rain = 0
KLE1 211254Z 08009KT 04/M07 A2987 RMK A01 T00441068  RH  044%=      5-min Rain = 0
KLE1 211255Z 08009KT 04/M07 A2987 RMK A01 T00431068  RH  044%=      5-min Rain = 0
KLE1 211256Z 08009KT 04/M07 A2987 RMK A01 T00431068  RH  044%=      5-min Rain = 0
KLE1 211257Z 08008KT 04/M07 A2987 RMK A01 T00431067  RH  044%=      5-min Rain = 0
KLE1 211258Z 08008KT 04/M07 A2987 RMK A01 T00431067  RH  044%=      5-min Rain = 0
KLE1 211259Z 07009KT 04/M07 A2987 RMK A01 T00431067  RH  044%=      5-min Rain = 0
KLE1 211300Z 07009KT 04/M07 A2987 RMK A01 T00441067  RH  044%=      5-min Rain = 0
KLE1 211301Z 07010KT 04/M07 A2987 RMK A01 T00441067  RH  044%=      5-min Rain = 0
KLE1 211302Z 08010KT 04/M07 A2987 RMK A01 T00441067  RH  044%=      5-min Rain = 0
KLE1 211303Z 08010KT 04/M07 A2987 RMK A01 T00441067  RH  044%=      5-min Rain = 0
KLE1 211304Z 08009KT 04/M07 A2987 RMK A01 T00441066  RH  044%=      5-min Rain = 0
KLE1 211305Z 08009KT 04/M07 A2987 RMK A01 T00441066  RH  045%=      5-min Rain = 0
KLE1 211306Z 08009KT 04/M07 A2987 RMK A01 T00441066  RH  045%=      5-min Rain = 0
KLE1 211307Z 08009KT 04/M07 A2987 RMK A01 T00441066  RH  045%=      5-min Rain = 0
KLE1 211308Z 08009KT 04/M07 A2987 RMK A01 T00441066  RH  045%=      5-min Rain = 0
KLE1 211309Z 08009KT 04/M07 A2987 RMK A01 T00441066  RH  045%=      5-min Rain = 0
KLE1 211310Z 08009KT 04/M07 A2987 RMK A01 T00441066  RH  045%=      5-min Rain = 0
KLE1 211311Z 08009KT 04/M07 A2987 RMK A01 T00441066  RH  045%=      5-min Rain = 0
KLE1 211312Z 08008KT 04/M07 A2987 RMK A01 T00441065  RH  045%=      5-min Rain = 0
KLE1 211313Z 07007KT 04/M07 A2987 RMK A01 T00441065  RH  045%=      5-min Rain = 0
KLE1 211314Z 07007KT 04/M07 A2987 RMK A01 T00441065  RH  045%=      5-min Rain = 0
KLE1 211315Z 07007KT 04/M07 A2987 RMK A01 T00441065  RH  045%=      5-min Rain = 0
KLE1 211316Z 07006KT 04/M07 A2987 RMK A01 T00441065  RH  045%=      5-min Rain = 0
KLE1 211317Z 07008KT 04/M07 A2987 RMK A01 T00431065  RH  045%=      5-min Rain = 0
KLE1 211318Z 07008KT 04/M06 A2987 RMK A01 T00431064  RH  046%=      5-min Rain = 0
KLE1 211319Z 08008KT 04/M06 A2987 RMK A01 T00431064  RH  046%=      5-min Rain = 0
KLE1 211320Z 08008KT 04/M06 A2987 RMK A01 T00431063  RH  046%=      5-min Rain = 0
KLE1 211321Z 08008KT 04/M06 A2987 RMK A01 T00421064  RH  046%=      5-min Rain = 0
KLE1 211322Z 07007KT 04/M06 A2987 RMK A01 T00421063  RH  046%=      5-min Rain = 0
KLE1 211323Z 07007KT 04/M06 A2987 RMK A01 T00421063  RH  046%=      5-min Rain = 0
KLE1 211324Z 07007KT 04/M06 A2987 RMK A01 T00431063  RH  046%=      5-min Rain = 0
KLE1 211325Z 08007KT 04/M06 A2987 RMK A01 T00431063  RH  046%=      5-min Rain = 0
KLE1 211326Z 08007KT 04/M06 A2987 RMK A01 T00431063  RH  046%=      5-min Rain = 0
KLE1 211327Z 08008KT 04/M06 A2987 RMK A01 T00431063  RH  046%=      5-min Rain = 0
KLE1 211328Z 07008KT 04/M06 A2987 RMK A01 T00431062  RH  046%=      5-min Rain = 0
KLE1 211329Z 07008KT 04/M06 A2987 RMK A01 T00431062  RH  046%=      5-min Rain = 0
KLE1 211330Z 07008KT 04/M06 A2987 RMK A01 T00441062  RH  046%=      5-min Rain = 0
KLE1 211331Z 07008KT 04/M06 A2987 RMK A01 T00441062  RH  046%=      5-min Rain = 0
KLE1 211332Z 07008KT 04/M06 A2987 RMK A01 T00441062  RH  046%=      5-min Rain = 0
KLE1 211333Z 07009KT 04/M06 A2987 RMK A01 T00441061  RH  046%=      5-min Rain = 0
KLE1 211334Z 07008KT 05/M06 A2987 RMK A01 T00451061  RH  046%=      5-min Rain = 0
KLE1 211335Z 07008KT 05/M06 A2987 RMK A01 T00451060  RH  046%=      5-min Rain = 0
KLE1 211336Z 07009KT 05/M06 A2987 RMK A01 T00451061  RH  046%=      5-min Rain = 0
KLE1 211337Z 07009KT 05/M06 A2986 RMK A01 T00451060  RH  046%=      5-min Rain = 0
KLE1 211338Z 07009KT 05/M06 A2986 RMK A01 T00451061  RH  046%=      5-min Rain = 0
KLE1 211339Z 07009KT 05/M06 A2986 RMK A01 T00451061  RH  046%=      5-min Rain = 0
KLE1 211340Z 07008KT 05/M06 A2986 RMK A01 T00461060  RH  046%=      5-min Rain = 0
KLE1 211341Z 08009KT 05/M06 A2986 RMK A01 T00461060  RH  046%=      5-min Rain = 0
KLE1 211342Z 08008KT 05/M06 A2987 RMK A01 T00461060  RH  046%=      5-min Rain = 0
KLE1 211343Z 07008KT 05/M06 A2987 RMK A01 T00461060  RH  046%=      5-min Rain = 0
KLE1 211344Z 07008KT 05/M06 A2986 RMK A01 T00461060  RH  046%=      5-min Rain = 0
KLE1 211345Z 07009KT 05/M06 A2986 RMK A01 T00461060  RH  046%=      5-min Rain = 0
KLE1 211346Z 08009KT 05/M06 A2986 RMK A01 T00461059  RH  046%=      5-min Rain = 0
KLE1 211347Z 07008KT 05/M06 A2986 RMK A01 T00461059  RH  046%=      5-min Rain = 0
KLE1 211348Z 08009KT 05/M06 A2987 RMK A01 T00461059  RH  047%=      5-min Rain = 0
KLE1 211349Z 08009KT 05/M06 A2986 RMK A01 T00461059  RH  047%=      5-min Rain = 0
KLE1 211350Z 08010KT 05/M06 A2986 RMK A01 T00471058  RH  047%=      5-min Rain = 0
KLE1 211351Z 08010KT 05/M06 A2986 RMK A01 T00471058  RH  047%=      5-min Rain = 0
KLE1 211352Z 08011KT 05/M06 A2986 RMK A01 T00471058  RH  046%=      5-min Rain = 0
KLE1 211353Z 08012KT 05/M06 A2986 RMK A01 T00471058  RH  046%=      5-min Rain = 0
KLE1 211354Z 08012KT 05/M06 A2986 RMK A01 T00471058  RH  046%=      5-min Rain = 0
KLE1 211355Z 08014KT 05/M06 A2985 RMK A01 T00481057  RH  047%=      5-min Rain = 0
KLE1 211356Z 08013KT 05/M06 A2985 RMK A01 T00471058  RH  047%=      5-min Rain = 0
KLE1 211357Z 08013KT 05/M06 A2985 RMK A01 T00481057  RH  047%=      5-min Rain = 0
KLE1 211358Z 08013KT 05/M06 A2985 RMK A01 T00481057  RH  046%=      5-min Rain = 0
KLE1 211359Z 08013KT 05/M06 A2986 RMK A01 T00481058  RH  046%=      5-min Rain = 0
KLE1 211400Z 08014KT 05/M06 A2985 RMK A01 T00481057  RH  046%=      5-min Rain = 0
KLE1 211401Z 08014KT 05/M06 A2985 RMK A01 T00471057  RH  047%=      5-min Rain = 0
KLE1 211402Z 07014KT 05/M06 A2985 RMK A01 T00481057  RH  047%=      5-min Rain = 0
KLE1 211403Z 08013KT 05/M06 A2985 RMK A01 T00471057  RH  047%=      5-min Rain = 0
KLE1 211404Z 08013KT 05/M06 A2985 RMK A01 T00481056  RH  047%=      5-min Rain = 0
KLE1 211405Z 08013KT 05/M06 A2985 RMK A01 T00481057  RH  047%=      5-min Rain = 0
KLE1 211406Z 08011KT 05/M06 A2985 RMK A01 T00481056  RH  047%=      5-min Rain = 0
KLE1 211407Z 08011KT 05/M06 A2986 RMK A01 T00481056  RH  047%=      5-min Rain = 0
KLE1 211408Z 08010KT 05/M06 A2986 RMK A01 T00481056  RH  047%=      5-min Rain = 0
KLE1 211409Z 08010KT 05/M06 A2986 RMK A01 T00481056  RH  047%=      5-min Rain = 0
KLE1 211410Z 08008KT 05/M06 A2986 RMK A01 T00481055  RH  047%=      5-min Rain = 0
KLE1 211411Z 08007KT 05/M06 A2987 RMK A01 T00481055  RH  047%=      5-min Rain = 0
KLE1 211412Z 08008KT 05/M06 A2987 RMK A01 T00481055  RH  047%=      5-min Rain = 0
KLE1 211413Z 07009KT 05/M06 A2986 RMK A01 T00481055  RH  047%=      5-min Rain = 0
KLE1 211414Z 08010KT 05/M05 A2986 RMK A01 T00481054  RH  048%=      5-min Rain = 0
KLE1 211415Z 08008KT 05/M05 A2987 RMK A01 T00481054  RH  047%=      5-min Rain = 0
KLE1 211416Z 08007KT 05/M05 A2987 RMK A01 T00481054  RH  047%=      5-min Rain = 0
KLE1 211417Z 08007KT 05/M05 A2987 RMK A01 T00481054  RH  047%=      5-min Rain = 0
KLE1 211418Z 08008KT 05/M05 A2987 RMK A01 T00491053  RH  047%=      5-min Rain = 0
KLE1 211419Z 08008KT 05/M05 A2986 RMK A01 T00491053  RH  047%=      5-min Rain = 0
KLE1 211420Z 08008KT 05/M05 A2986 RMK A01 T00491053  RH  048%=      5-min Rain = 0
KLE1 211421Z 07009KT 05/M05 A2986 RMK A01 T00491053  RH  048%=      5-min Rain = 0
KLE1 211422Z 07009KT 05/M05 A2986 RMK A01 T00491053  RH  048%=      5-min Rain = 0
KLE1 211423Z 07009KT 05/M05 A2986 RMK A01 T00501052  RH  048%=      5-min Rain = 0
KLE1 211424Z 07008KT 05/M05 A2986 RMK A01 T00501052  RH  048%=      5-min Rain = 0
KLE1 211425Z 07008KT 05/M05 A2986 RMK A01 T00501052  RH  048%=      5-min Rain = 0
KLE1 211426Z 07007KT 05/M05 A2987 RMK A01 T00501052  RH  048%=      5-min Rain = 0
KLE1 211427Z 07007KT 05/M05 A2987 RMK A01 T00501052  RH  048%=      5-min Rain = 0
KLE1 211428Z 07007KT 05/M05 A2987 RMK A01 T00501052  RH  048%=      5-min Rain = 0
KLE1 211429Z 07006KT 05/M05 A2987 RMK A01 T00511051  RH  048%=      5-min Rain = 0
KLE1 211430Z 07007KT 05/M05 A2987 RMK A01 T00511051  RH  048%=      5-min Rain = 0
KLE1 211431Z 07007KT 05/M05 A2987 RMK A01 T00511051  RH  048%=      5-min Rain = 0
KLE1 211432Z 08006KT 05/M05 A2988 RMK A01 T00511050  RH  048%=      5-min Rain = 0
KLE1 211433Z 07005KT 05/M05 A2988 RMK A01 T00511050  RH  048%=      5-min Rain = 0
KLE1 211434Z 08005KT 05/M05 A2989 RMK A01 T00521050  RH  048%=      5-min Rain = 0
KLE1 211435Z 09004KT 05/M05 A299 RMK A01 T00521050  RH  048%=      5-min Rain = 0
KLE1 211436Z 10002KT 05/M05 A299 RMK A01 T00531050  RH  047%=      5-min Rain = 0
KLE1 211437Z 15002KT 05/M05 A2991 RMK A01 T00531050  RH  047%=      5-min Rain = 0
KLE1 211438Z 12002KT 05/M05 A2991 RMK A01 T00531050  RH  047%=      5-min Rain = 0
KLE1 211439Z 11003KT 05/M05 A2991 RMK A01 T00541050  RH  047%=      5-min Rain = 0
KLE1 211440Z 10004KT 05/M05 A2991 RMK A01 T00541049  RH  047%=      5-min Rain = 0
KLE1 211441Z 11004KT 06/M05 A2992 RMK A01 T00551049  RH  047%=      5-min Rain = 0
KLE1 211442Z 11005KT 06/M05 A2992 RMK A01 T00551049  RH  047%=      5-min Rain = 0
KLE1 211443Z 11005KT 06/M05 A2992 RMK A01 T00551049  RH  047%=      5-min Rain = 0
KLE1 211444Z 12006KT 06/M05 A2992 RMK A01 T00551049  RH  047%=      5-min Rain = 0
KLE1 211445Z 12005KT 06/M05 A2992 RMK A01 T00561048  RH  047%=      5-min Rain = 0
KLE1 211446Z 11004KT 06/M05 A2992 RMK A01 T00561048  RH  047%=      5-min Rain = 0
KLE1 211447Z 12004KT 06/M05 A2992 RMK A01 T00561048  RH  047%=      5-min Rain = 0
KLE1 211448Z 12005KT 06/M05 A2992 RMK A01 T00561047  RH  047%=      5-min Rain = 0
KLE1 211449Z 11005KT 06/M05 A2992 RMK A01 T00561047  RH  047%=      5-min Rain = 0
KLE1 211450Z 11007KT 06/M05 A2992 RMK A01 T00571047  RH  047%=      5-min Rain = 0
KLE1 211451Z 11007KT 06/M05 A2992 RMK A01 T00571046  RH  047%=      5-min Rain = 0
KLE1 211452Z 10005KT 06/M05 A2992 RMK A01 T00571046  RH  047%=      5-min Rain = 0
KLE1 211453Z 10006KT 06/M05 A2992 RMK A01 T00581046  RH  047%=      5-min Rain = 0
KLE1 211454Z 11007KT 06/M05 A2992 RMK A01 T00581046  RH  047%=      5-min Rain = 0
KLE1 211455Z 11007KT 06/M05 A2992 RMK A01 T00581046  RH  047%=      5-min Rain = 0
KLE1 211456Z 10007KT 06/M05 A2992 RMK A01 T00581045  RH  047%=      5-min Rain = 0
KLE1 211457Z 10008KT 06/M05 A2991 RMK A01 T00581045  RH  047%=      5-min Rain = 0
KLE1 211458Z 10007KT 06/M05 A2991 RMK A01 T00581046  RH  047%=      5-min Rain = 0
KLE1 211459Z 09007KT 06/M05 A2991 RMK A01 T00581045  RH  048%=      5-min Rain = 0
KLE1 211500Z 09007KT 06/M05 A2991 RMK A01 T00581045  RH  048%=      5-min Rain = 0
KLE1 211501Z 10007KT 06/M05 A2991 RMK A01 T00571045  RH  048%=      5-min Rain = 0
KLE1 211502Z 09006KT 06/M05 A2991 RMK A01 T00581045  RH  048%=      5-min Rain = 0
KLE1 211503Z 09006KT 06/M05 A2991 RMK A01 T00571045  RH  048%=      5-min Rain = 0
KLE1 211504Z 09006KT 06/M05 A2991 RMK A01 T00581045  RH  048%=      5-min Rain = 0
KLE1 211505Z 09007KT 06/M04 A2991 RMK A01 T00571044  RH  048%=      5-min Rain = 0
KLE1 211506Z 09006KT 06/M04 A2991 RMK A01 T00581044  RH  048%=      5-min Rain = 0
KLE1 211507Z 09006KT 06/M04 A2991 RMK A01 T00571044  RH  048%=      5-min Rain = 0
KLE1 211508Z 09006KT 06/M04 A2991 RMK A01 T00581044  RH  048%=      5-min Rain = 0
KLE1 211509Z 10006KT 06/M04 A2992 RMK A01 T00581043  RH  048%=      5-min Rain = 0
KLE1 211510Z 10006KT 06/M04 A2992 RMK A01 T00581043  RH  048%=      5-min Rain = 0
KLE1 211511Z 10007KT 06/M04 A2991 RMK A01 T00581043  RH  048%=      5-min Rain = 0
KLE1 211512Z 10006KT 06/M04 A2991 RMK A01 T00591043  RH  048%=      5-min Rain = 0
KLE1 211513Z 09007KT 06/M04 A2991 RMK A01 T00591042  RH  048%=      5-min Rain = 0
KLE1 211514Z 09007KT 06/M04 A2991 RMK A01 T00591042  RH  048%=      5-min Rain = 0
KLE1 211515Z 09007KT 06/M04 A2991 RMK A01 T00601042  RH  048%=      5-min Rain = 0
KLE1 211516Z 09007KT 06/M04 A2991 RMK A01 T00601041  RH  048%=      5-min Rain = 0
KLE1 211517Z 09007KT 06/M04 A2991 RMK A01 T00601041  RH  048%=      5-min Rain = 0
KLE1 211518Z 09007KT 06/M04 A2991 RMK A01 T00611041  RH  048%=      5-min Rain = 0
KLE1 211519Z 09008KT 06/M04 A2991 RMK A01 T00611041  RH  048%=      5-min Rain = 0
KLE1 211520Z 10007KT 06/M04 A2991 RMK A01 T00611041  RH  048%=      5-min Rain = 0
KLE1 211521Z 09008KT 06/M04 A2991 RMK A01 T00621041  RH  048%=      5-min Rain = 0
KLE1 211522Z 09007KT 06/M04 A2991 RMK A01 T00621041  RH  048%=      5-min Rain = 0
KLE1 211523Z 09009KT 06/M04 A2991 RMK A01 T00621040  RH  048%=      5-min Rain = 0
KLE1 211524Z 09007KT 06/M04 A2991 RMK A01 T00631040  RH  048%=      5-min Rain = 0
KLE1 211525Z 09008KT 06/M04 A2991 RMK A01 T00631040  RH  048%=      5-min Rain = 0
KLE1 211526Z 09008KT 06/M04 A2991 RMK A01 T00631040  RH  048%=      5-min Rain = 0
KLE1 211527Z 09008KT 06/M04 A2991 RMK A01 T00631040  RH  048%=      5-min Rain = 0
KLE1 211528Z 09008KT 06/M04 A2991 RMK A01 T00631039  RH  048%=      5-min Rain = 0
KLE1 211529Z 08007KT 06/M04 A2991 RMK A01 T00631039  RH  048%=      5-min Rain = 0
KLE1 211530Z 08007KT 06/M04 A2991 RMK A01 T00641039  RH  048%=      5-min Rain = 0
KLE1 211531Z 08007KT 06/M04 A2991 RMK A01 T00641038  RH  048%=      5-min Rain = 0
KLE1 211532Z 08007KT 06/M04 A2992 RMK A01 T00641038  RH  048%=      5-min Rain = 0
KLE1 211533Z 08007KT 07/M04 A2992 RMK A01 T00651038  RH  048%=      5-min Rain = 0
KLE1 211534Z 07006KT 07/M04 A2992 RMK A01 T00651037  RH  048%=      5-min Rain = 0
KLE1 211535Z 07008KT 07/M04 A2992 RMK A01 T00661038  RH  048%=      5-min Rain = 0
KLE1 211536Z 06008KT 07/M04 A2992 RMK A01 T00661038  RH  048%=      5-min Rain = 0
KLE1 211537Z 06008KT 07/M04 A2992 RMK A01 T00661038  RH  047%=      5-min Rain = 0
KLE1 211538Z 07007KT 07/M04 A2992 RMK A01 T00661037  RH  048%=      5-min Rain = 0
KLE1 211539Z 07008KT 07/M04 A2992 RMK A01 T00671037  RH  048%=      5-min Rain = 0
KLE1 211540Z 07009KT 07/M04 A2992 RMK A01 T00671037  RH  047%=      5-min Rain = 0
KLE1 211541Z 07008KT 07/M04 A2992 RMK A01 T00681037  RH  047%=      5-min Rain = 0
KLE1 211542Z 06008KT 07/M04 A2992 RMK A01 T00671037  RH  047%=      5-min Rain = 0
KLE1 211543Z 07006KT 07/M04 A2992 RMK A01 T00681037  RH  047%=      5-min Rain = 0
KLE1 211544Z 07007KT 07/M04 A2992 RMK A01 T00691035  RH  047%=      5-min Rain = 0
KLE1 211545Z 07008KT 07/M04 A2992 RMK A01 T00701035  RH  047%=      5-min Rain = 0
KLE1 211546Z 07007KT 07/M04 A2992 RMK A01 T00701036  RH  047%=      5-min Rain = 0
KLE1 211547Z 08008KT 07/M04 A2992 RMK A01 T00711036  RH  047%=      5-min Rain = 0
KLE1 211548Z 08008KT 07/M04 A2992 RMK A01 T00711036  RH  047%=      5-min Rain = 0
KLE1 211549Z 08007KT 07/M04 A2992 RMK A01 T00711036  RH  046%=      5-min Rain = 0
KLE1 211550Z 08008KT 07/M04 A2992 RMK A01 T00711035  RH  047%=      5-min Rain = 0
KLE1 211551Z 08007KT 07/M03 A2992 RMK A01 T00731034  RH  047%=      5-min Rain = 0
KLE1 211552Z 08008KT 07/M03 A2992 RMK A01 T00731034  RH  046%=      5-min Rain = 0
KLE1 211553Z 09007KT 07/M04 A2992 RMK A01 T00731035  RH  046%=      5-min Rain = 0
KLE1 211554Z 09007KT 07/M04 A2992 RMK A01 T00731035  RH  046%=      5-min Rain = 0
KLE1 211555Z 08008KT 07/M03 A2992 RMK A01 T00731034  RH  046%=      5-min Rain = 0
KLE1 211556Z 09008KT 07/M03 A2992 RMK A01 T00741034  RH  046%=      5-min Rain = 0
KLE1 211557Z 09008KT 07/M03 A2992 RMK A01 T00741034  RH  046%=      5-min Rain = 0
KLE1 211558Z 09009KT 08/M03 A2992 RMK A01 T00751033  RH  046%=      5-min Rain = 0
KLE1 211559Z 08009KT 08/M03 A2992 RMK A01 T00751034  RH  046%=      5-min Rain = 0
KLE1 211600Z 08008KT 07/M04 A2993 RMK A01 T00741035  RH  046%=      5-min Rain = 0
KLE1 211601Z 09008KT 07/M03 A2993 RMK A01 T00741034  RH  046%=      5-min Rain = 0
KLE1 211602Z 08007KT 08/M03 A2993 RMK A01 T00751033  RH  046%=      5-min Rain = 0
KLE1 211603Z 09008KT 08/M03 A2993 RMK A01 T00761033  RH  046%=      5-min Rain = 0
KLE1 211604Z 09009KT 08/M03 A2993 RMK A01 T00771033  RH  046%=      5-min Rain = 0
KLE1 211605Z 09009KT 08/M03 A2993 RMK A01 T00761034  RH  046%=      5-min Rain = 0
KLE1 211606Z 10009KT 08/M03 A2993 RMK A01 T00761034  RH  046%=      5-min Rain = 0
KLE1 211607Z 10008KT 08/M03 A2993 RMK A01 T00771033  RH  046%=      5-min Rain = 0
KLE1 211608Z 09008KT 08/M03 A2993 RMK A01 T00771033  RH  046%=      5-min Rain = 0
KLE1 211609Z 09008KT 08/M03 A2993 RMK A01 T00771033  RH  046%=      5-min Rain = 0
KLE1 211610Z 10009KT 08/M03 A2993 RMK A01 T00781032  RH  046%=      5-min Rain = 0
KLE1 211611Z 10008KT 08/M03 A2993 RMK A01 T00811030  RH  046%=      5-min Rain = 0
KLE1 211612Z 09009KT 08/M03 A2993 RMK A01 T00821030  RH  045%=      5-min Rain = 0
KLE1 211613Z 10009KT 08/M03 A2993 RMK A01 T00831031  RH  045%=      5-min Rain = 0
KLE1 211614Z 10011KT 08/M03 A2992 RMK A01 T00841030  RH  045%=      5-min Rain = 0
KLE1 211615Z 10011KT 08/M03 A2992 RMK A01 T00841031  RH  044%=      5-min Rain = 0
KLE1 211616Z 10013KT 08/M03 A2992 RMK A01 T00841031  RH  044%=      5-min Rain = 0
KLE1 211617Z 10012KT 08/M03 A2992 RMK A01 T00821032  RH  044%=      5-min Rain = 0
KLE1 211618Z 11011KT 08/M03 A2992 RMK A01 T00811032  RH  045%=      5-min Rain = 0
KLE1 211619Z 10012KT 08/M03 A2992 RMK A01 T00811031  RH  045%=      5-min Rain = 0
KLE1 211620Z 10013KT 08/M03 A2992 RMK A01 T00801031  RH  045%=      5-min Rain = 0
KLE1 211621Z 09013KT 08/M03 A2992 RMK A01 T00811030  RH  045%=      5-min Rain = 0
KLE1 211622Z 10011KT 08/M03 A2992 RMK A01 T00841028  RH  045%=      5-min Rain = 0
KLE1 211623Z 10012KT 09/M03 A2992 RMK A01 T00861027  RH  045%=      5-min Rain = 0
KLE1 211624Z 10011KT 09/M03 A2992 RMK A01 T00881027  RH  044%=      5-min Rain = 0
KLE1 211625Z 09014KT 09/M03 A2992 RMK A01 T00881027  RH  044%=      5-min Rain = 0
KLE1 211626Z 10014KT 09/M03 A2991 RMK A01 T00881028  RH  044%=      5-min Rain = 0
KLE1 211627Z 11011KT 09/M03 A2991 RMK A01 T00891027  RH  044%=      5-min Rain = 0
KLE1 211628Z 11015KT 09/M03 A2991 RMK A01 T00901026  RH  044%=      5-min Rain = 0
KLE1 211629Z 11015KT 09/M03 A2991 RMK A01 T00881029  RH  044%=      5-min Rain = 0
KLE1 211630Z 12016KT 09/M03 A2991 RMK A01 T00851029  RH  044%=      5-min Rain = 0
KLE1 211631Z 12014KT 08/M03 A2991 RMK A01 T00831030  RH  045%=      5-min Rain = 0
KLE1 211632Z 10015KT 08/M03 A2992 RMK A01 T00821028  RH  046%=      5-min Rain = 0
KLE1 211633Z 11013KT 08/M03 A2992 RMK A01 T00831028  RH  046%=      5-min Rain = 0
KLE1 211634Z 11013KT 09/M03 A2992 RMK A01 T00851025  RH  046%=      5-min Rain = 0
KLE1 211635Z 10016KT 09/M03 A2991 RMK A01 T00861025  RH  045%=      5-min Rain = 0
KLE1 211636Z 11014KT 09/M03 A2991 RMK A01 T00861026  RH  045%=      5-min Rain = 0
KLE1 211637Z 11014KT 09/M03 A2991 RMK A01 T00861025  RH  045%=      5-min Rain = 0
KLE1 211638Z 10016KT 09/M03 A2991 RMK A01 T00861025  RH  046%=      5-min Rain = 0
KLE1 211639Z 11013KT 09/M02 A2991 RMK A01 T00881023  RH  046%=      5-min Rain = 0
KLE1 211640Z 10014KT 09/M02 A2991 RMK A01 T00901022  RH  045%=      5-min Rain = 0
KLE1 211641Z 10015KT 09/M02 A2991 RMK A01 T00911023  RH  045%=      5-min Rain = 0
KLE1 211642Z 10018KT 09/M02 A2991 RMK A01 T00921023  RH  044%=      5-min Rain = 0
KLE1 211643Z 11016KT 09/M02 A2991 RMK A01 T00931023  RH  044%=      5-min Rain = 0
KLE1 211644Z 11015KT 09/M02 A2991 RMK A01 T00931022  RH  044%=      5-min Rain = 0
KLE1 211645Z 10014KT 09/M02 A2991 RMK A01 T00941021  RH  044%=      5-min Rain = 0
KLE1 211646Z 11016KT 10/M02 A2991 RMK A01 T00961021  RH  044%=      5-min Rain = 0
KLE1 211647Z 11016KT 10/M02 A2991 RMK A01 T00961021  RH  044%=      5-min Rain = 0
KLE1 211648Z 11016KT 10/M02 A2991 RMK A01 T00971020  RH  044%=      5-min Rain = 0
KLE1 211649Z 11017KT 10/M02 A2991 RMK A01 T00991020  RH  043%=      5-min Rain = 0
KLE1 211650Z 12016KT 10/M02 A2991 RMK A01 T00981022  RH  043%=      5-min Rain = 0
KLE1 211651Z 11017KT 10/M02 A299 RMK A01 T00981021  RH  044%=      5-min Rain = 0
KLE1 211652Z 10020KT 10/M02 A299 RMK A01 T00981021  RH  044%=      5-min Rain = 0
KLE1 211653Z 11017KT 10/M02 A299 RMK A01 T00951022  RH  044%=      5-min Rain = 0
KLE1 211654Z 11019KT 09/M02 A299 RMK A01 T00931021  RH  045%=      5-min Rain = 0
KLE1 211655Z 12016KT 09/M02 A299 RMK A01 T00921021  RH  045%=      5-min Rain = 0
KLE1 211656Z 11016KT 09/M02 A299 RMK A01 T00931021  RH  045%=      5-min Rain = 0
KLE1 211657Z 11018KT 09/M02 A299 RMK A01 T00931020  RH  045%=      5-min Rain = 0
KLE1 211658Z 11016KT 09/M02 A299 RMK A01 T00921020  RH  045%=      5-min Rain = 0
KLE1 211659Z 11016KT 09/M02 A299 RMK A01 T00931019  RH  045%=      5-min Rain = 0
KLE1 211700Z 11018KT 09/M02 A299 RMK A01 T00941019  RH  045%=      5-min Rain = 0
KLE1 211701Z 12016KT 09/M02 A299 RMK A01 T00941020  RH  045%=      5-min Rain = 0
KLE1 211702Z 12016KT 09/M02 A2991 RMK A01 T00931020  RH  045%=      5-min Rain = 0
KLE1 211703Z 11016G21KT 10/M02 A299 RMK A01 T00961017  RH  045%=      5-min Rain = 0
KLE1 211704Z 11019KT 10/M02 A299 RMK A01 T00981017  RH  045%=      5-min Rain = 0
KLE1 211705Z 11018KT 10/M02 A2991 RMK A01 T00971019  RH  044%=      5-min Rain = 0
KLE1 211706Z 11017KT 10/M02 A2991 RMK A01 T00961018  RH  045%=      5-min Rain = 0
KLE1 211707Z 11018KT 10/M02 A2991 RMK A01 T00971018  RH  045%=      5-min Rain = 0
KLE1 211708Z 11018KT 10/M02 A299 RMK A01 T00971018  RH  045%=      5-min Rain = 0
KLE1 211709Z 11016KT 10/M02 A2991 RMK A01 T01001015  RH  044%=      5-min Rain = 0
KLE1 211710Z 11017KT 10/M02 A299 RMK A01 T01011016  RH  044%=      5-min Rain = 0
KLE1 211711Z 11019KT 10/M01 A299 RMK A01 T01041014  RH  044%=      5-min Rain = 0
KLE1 211712Z 12019KT 11/M02 A2991 RMK A01 T01051016  RH  043%=      5-min Rain = 0
KLE1 211713Z 12015KT 10/M02 A2991 RMK A01 T01021018  RH  043%=      5-min Rain = 0
KLE1 211714Z 11017KT 10/M02 A2991 RMK A01 T01021015  RH  044%=      5-min Rain = 0
KLE1 211715Z 11017KT 10/M02 A2991 RMK A01 T01021016  RH  044%=      5-min Rain = 0
KLE1 211716Z 11015KT 10/M02 A2991 RMK A01 T01021016  RH  044%=      5-min Rain = 0
KLE1 211717Z 12018KT 10/M02 A2991 RMK A01 T01021015  RH  044%=      5-min Rain = 0
KLE1 211718Z 12017KT 10/M02 A2991 RMK A01 T01041015  RH  044%=      5-min Rain = 0
KLE1 211719Z 12017KT 10/M02 A2991 RMK A01 T01041015  RH  043%=      5-min Rain = 0
KLE1 211720Z 13016KT 10/M02 A2991 RMK A01 T01041015  RH  043%=      5-min Rain = 0
KLE1 211721Z 13017KT 11/M02 A2991 RMK A01 T01051015  RH  043%=      5-min Rain = 0
KLE1 211722Z 13017KT 11/M02 A2991 RMK A01 T01051016  RH  043%=      5-min Rain = 0
KLE1 211723Z 13015KT 10/M02 A2991 RMK A01 T01041016  RH  043%=      5-min Rain = 0
KLE1 211724Z 13017KT 11/M01 A2991 RMK A01 T01051014  RH  044%=      5-min Rain = 0
KLE1 211725Z 11016KT 11/M01 A2991 RMK A01 T01061014  RH  043%=      5-min Rain = 0
KLE1 211726Z 11016KT 11/M02 A2991 RMK A01 T01051015  RH  043%=      5-min Rain = 0
KLE1 211727Z 12014KT 10/M01 A2991 RMK A01 T01041014  RH  044%=      5-min Rain = 0
KLE1 211728Z 12017KT 11/M01 A2991 RMK A01 T01051013  RH  044%=      5-min Rain = 0
KLE1 211729Z 12018KT 11/M01 A2991 RMK A01 T01061013  RH  043%=      5-min Rain = 0
KLE1 211730Z 12018KT 11/M01 A2991 RMK A01 T01061014  RH  043%=      5-min Rain = 0
KLE1 211731Z 12018KT 11/M01 A2991 RMK A01 T01061013  RH  044%=      5-min Rain = 0
KLE1 211732Z 11019KT 11/M01 A2991 RMK A01 T01061013  RH  044%=      5-min Rain = 0
KLE1 211733Z 12018KT 11/M01 A2991 RMK A01 T01081010  RH  044%=      5-min Rain = 0
KLE1 211734Z 11019KT 11/M01 A2991 RMK A01 T01071013  RH  043%=      5-min Rain = 0
KLE1 211735Z 11017KT 10/M01 A2991 RMK A01 T01041013  RH  044%=      5-min Rain = 0
KLE1 211736Z 12020KT 10/M01 A2991 RMK A01 T01041012  RH  044%=      5-min Rain = 0
KLE1 211737Z 13020KT 11/M01 A2991 RMK A01 T01051012  RH  044%=      5-min Rain = 0
KLE1 211738Z 12020KT 11/M01 A2991 RMK A01 T01051011  RH  044%=      5-min Rain = 0
KLE1 211739Z 13021KT 11/M01 A299 RMK A01 T01061011  RH  044%=      5-min Rain = 0
KLE1 211740Z 13017KT 11/M01 A2991 RMK A01 T01061010  RH  044%=      5-min Rain = 0
KLE1 211741Z 13017KT 11/M01 A2991 RMK A01 T01101008  RH  044%=      5-min Rain = 0
KLE1 211742Z 12017KT 11/M01 A2991 RMK A01 T01131006  RH  044%=      5-min Rain = 0
KLE1 211743Z 13018KT 11/M01 A2991 RMK A01 T01131008  RH  043%=      5-min Rain = 0
KLE1 211744Z 11020KT 11/M01 A2991 RMK A01 T01111008  RH  043%=      5-min Rain = 0
KLE1 211745Z 12019KT 11/M01 A2991 RMK A01 T01101009  RH  044%=      5-min Rain = 0
KLE1 211746Z 13018KT 11/M01 A2991 RMK A01 T01091009  RH  044%=      5-min Rain = 0
KLE1 211747Z 12018KT 11/M01 A2991 RMK A01 T01091008  RH  044%=      5-min Rain = 0
KLE1 211748Z 12017KT 11/M01 A2991 RMK A01 T01101007  RH  044%=      5-min Rain = 0
KLE1 211749Z 13018KT 11/M01 A2991 RMK A01 T01111007  RH  044%=      5-min Rain = 0
KLE1 211750Z 14018KT 11/M01 A2991 RMK A01 T01131008  RH  043%=      5-min Rain = 0
KLE1 211751Z 14016KT 11/M01 A2991 RMK A01 T01131007  RH  043%=      5-min Rain = 0
KLE1 211752Z 13017KT 12/M01 A2991 RMK A01 T01161006  RH  043%=      5-min Rain = 0
KLE1 211753Z 13015KT 11/M01 A2991 RMK A01 T01131009  RH  043%=      5-min Rain = 0
KLE1 211754Z 14017G22KT 11/M01 A2991 RMK A01 T01121007  RH  044%=      5-min Rain = 0
KLE1 211755Z 13015KT 11/M01 A2991 RMK A01 T01121006  RH  044%=      5-min Rain = 0
KLE1 211756Z 12015KT 12/M00 A2991 RMK A01 T01151003  RH  044%=      5-min Rain = 0
KLE1 211757Z 13019KT 12/M00 A2991 RMK A01 T01191002  RH  043%=      5-min Rain = 0
KLE1 211758Z 12016KT 12/M00 A2991 RMK A01 T01201003  RH  043%=      5-min Rain = 0
KLE1 211759Z 12017KT 12/M00 A2991 RMK A01 T01221004  RH  042%=      5-min Rain = 0
KLE1 211800Z 11016KT 12/M01 A2991 RMK A01 T01191006  RH  042%=      5-min Rain = 0
KLE1 211801Z 12015KT 12/M00 A2991 RMK A01 T01161004  RH  043%=      5-min Rain = 0
KLE1 211802Z 12017KT 12/00 A2991 RMK A01 T01230001  RH  043%=      5-min Rain = 0
KLE1 211803Z 12016KT 13/M00 A2991 RMK A01 T01251002  RH  042%=      5-min Rain = 0
KLE1 211804Z 12015KT 12/M01 A2991 RMK A01 T01221005  RH  041%=      5-min Rain = 0
KLE1 211805Z 13014KT 12/M00 A2991 RMK A01 T01211003  RH  042%=      5-min Rain = 0
KLE1 211806Z 13014KT 12/M00 A2991 RMK A01 T01231003  RH  042%=      5-min Rain = 0
KLE1 211807Z 14013G18KT 12/M00 A2991 RMK A01 T01241003  RH  041%=      5-min Rain = 0
KLE1 211808Z 13018KT 13/M00 A2991 RMK A01 T01251003  RH  041%=      5-min Rain = 0
KLE1 211809Z 13015KT 12/M01 A2991 RMK A01 T01221006  RH  041%=      5-min Rain = 0
KLE1 211810Z 13015KT 12/M00 A299 RMK A01 T01211003  RH  042%=      5-min Rain = 0
KLE1 211811Z 14016KT 12/M00 A299 RMK A01 T01241001  RH  042%=      5-min Rain = 0
KLE1 211812Z 12016G21KT 13/M00 A299 RMK A01 T01251003  RH  041%=      5-min Rain = 0
KLE1 211813Z 12017KT 13/M00 A299 RMK A01 T01251003  RH  041%=      5-min Rain = 0
KLE1 211814Z 12015KT 12/M00 A299 RMK A01 T01241003  RH  042%=      5-min Rain = 0
KLE1 211815Z 11020G25KT 12/M00 A2989 RMK A01 T01241002  RH  042%=      5-min Rain = 0
KLE1 211816Z 12019G24KT 13/00 A2989 RMK A01 T01260000  RH  042%=      5-min Rain = 0
KLE1 211817Z 11020KT 13/00 A2989 RMK A01 T01310001  RH  041%=      5-min Rain = 0
KLE1 211818Z 12020KT 13/M00 A2989 RMK A01 T01301001  RH  041%=      5-min Rain = 0
KLE1 211819Z 11021KT 13/M00 A2989 RMK A01 T01281002  RH  041%=      5-min Rain = 0
KLE1 211820Z 11021KT 13/M00 A2989 RMK A01 T01261001  RH  041%=      5-min Rain = 0
KLE1 211821Z 12018KT 13/M00 A2989 RMK A01 T01261001  RH  042%=      5-min Rain = 0
KLE1 211822Z 12019G24KT 13/00 A2989 RMK A01 T01280000  RH  042%=      5-min Rain = 0
KLE1 211823Z 11020G25KT 13/00 A2989 RMK A01 T01280000  RH  041%=      5-min Rain = 0
KLE1 211824Z 12022KT 13/00 A2989 RMK A01 T012800-0  RH  041%=      5-min Rain = 0
KLE1 211825Z 12021G26KT 13/M00 A2989 RMK A01 T01281001  RH  041%=      5-min Rain = 0
KLE1 211826Z 14017KT 13/M00 A2989 RMK A01 T01281001  RH  041%=      5-min Rain = 0
KLE1 211827Z 12018KT 13/00 A2989 RMK A01 T01290000  RH  041%=      5-min Rain = 0
KLE1 211828Z 12017KT 13/00 A2989 RMK A01 T01300000  RH  041%=      5-min Rain = 0
KLE1 211829Z 13018G24KT 13/00 A2989 RMK A01 T01320001  RH  041%=      5-min Rain = 0
KLE1 211830Z 14017G22KT 14/00 A2989 RMK A01 T01360001  RH  040%=      5-min Rain = 0
KLE1 211831Z 13020KT 14/M00 A2989 RMK A01 T01361001  RH  039%=      5-min Rain = 0
KLE1 211832Z 13019KT 13/M00 A2989 RMK A01 T01331003  RH  039%=      5-min Rain = 0
KLE1 211833Z 14019KT 13/00 A2988 RMK A01 T013200-0  RH  040%=      5-min Rain = 0
KLE1 211834Z 14018KT 14/00 A2988 RMK A01 T01360002  RH  040%=      5-min Rain = 0
KLE1 211835Z 13017KT 14/00 A2988 RMK A01 T01360000  RH  039%=      5-min Rain = 0
KLE1 211836Z 13021G26KT 14/00 A2988 RMK A01 T013500-0  RH  040%=      5-min Rain = 0
KLE1 211837Z 12020G26KT 13/M00 A2988 RMK A01 T01341001  RH  039%=      5-min Rain = 0
KLE1 211838Z 13019KT 13/00 A2988 RMK A01 T013300-0  RH  040%=      5-min Rain = 0
KLE1 211839Z 12020G26KT 13/M00 A2988 RMK A01 T01331001  RH  040%=      5-min Rain = 0
KLE1 211840Z 13022KT 13/00 A2988 RMK A01 T01340000  RH  040%=      5-min Rain = 0
KLE1 211841Z 15018KT 14/00 A2989 RMK A01 T01360001  RH  039%=      5-min Rain = 0
KLE1 211842Z 14015KT 14/M00 A2989 RMK A01 T01351001  RH  039%=      5-min Rain = 0
KLE1 211843Z 13018KT 13/00 A2989 RMK A01 T01330000  RH  040%=      5-min Rain = 0
KLE1 211844Z 13015KT 14/00 A2989 RMK A01 T01350000  RH  040%=      5-min Rain = 0
KLE1 211845Z 12015KT 14/00 A2989 RMK A01 T01360003  RH  040%=      5-min Rain = 0
KLE1 211846Z 13016G21KT 14/00 A2989 RMK A01 T01400003  RH  039%=      5-min Rain = 0
KLE1 211847Z 12018G24KT 14/00 A2989 RMK A01 T01420002  RH  038%=      5-min Rain = 0
KLE1 211848Z 12017G22KT 14/M00 A2988 RMK A01 T01401001  RH  038%=      5-min Rain = 0
KLE1 211849Z 14017G22KT 14/M00 A2989 RMK A01 T01351001  RH  039%=      5-min Rain = 0
KLE1 211850Z 13018KT 14/00 A2989 RMK A01 T01390002  RH  039%=      5-min Rain = 0
KLE1 211851Z 12019KT 14/00 A2988 RMK A01 T01400001  RH  039%=      5-min Rain = 0
KLE1 211852Z 13020KT 14/00 A2988 RMK A01 T01390000  RH  039%=      5-min Rain = 0
KLE1 211853Z 13016KT 14/00 A2988 RMK A01 T01390000  RH  039%=      5-min Rain = 0
KLE1 211854Z 15015KT 14/00 A2988 RMK A01 T013800-0  RH  039%=      5-min Rain = 0
KLE1 211855Z 14014KT 14/00 A2988 RMK A01 T01390002  RH  039%=      5-min Rain = 0
KLE1 211856Z 13018KT 14/00 A2988 RMK A01 T01430003  RH  038%=      5-min Rain = 0
KLE1 211857Z 12020KT 14/00 A2988 RMK A01 T01430001  RH  038%=      5-min Rain = 0
KLE1 211858Z 12018KT 14/M00 A2988 RMK A01 T01421001  RH  038%=      5-min Rain = 0
KLE1 211859Z 12018G24KT 14/M00 A2987 RMK A01 T01411001  RH  038%=      5-min Rain = 0
KLE1 211900Z 13019KT 14/00 A2987 RMK A01 T014100-0  RH  038%=      5-min Rain = 0
KLE1 211901Z 14021G26KT 14/00 A2987 RMK A01 T01440001  RH  037%=      5-min Rain = 0
KLE1 211902Z 14021KT 14/M00 A2987 RMK A01 T01441002  RH  037%=      5-min Rain = 0
KLE1 211903Z 14016KT 14/M00 A2987 RMK A01 T01421002  RH  037%=      5-min Rain = 0
KLE1 211904Z 13017G24KT 14/00 A2987 RMK A01 T01440001  RH  038%=      5-min Rain = 0
KLE1 211905Z 13022KT 15/00 A2987 RMK A01 T014600-0  RH  037%=      5-min Rain = 0
KLE1 211906Z 13021KT 14/M00 A2987 RMK A01 T01441001  RH  037%=      5-min Rain = 0
KLE1 211907Z 14021KT 14/M00 A2987 RMK A01 T01431002  RH  037%=      5-min Rain = 0
KLE1 211908Z 14015KT 14/M00 A2987 RMK A01 T01411001  RH  038%=      5-min Rain = 0
KLE1 211909Z 13018KT 15/00 A2987 RMK A01 T01470003  RH  037%=      5-min Rain = 0
KLE1 211910Z 14021KT 15/00 A2987 RMK A01 T014900-0  RH  036%=      5-min Rain = 0
KLE1 211911Z 14021G26KT 15/M00 A2987 RMK A01 T01481001  RH  036%=      5-min Rain = 0
KLE1 211912Z 14017G22KT 15/M00 A2988 RMK A01 T01471002  RH  036%=      5-min Rain = 0
KLE1 211913Z 15016KT 15/M00 A2988 RMK A01 T01481001  RH  036%=      5-min Rain = 0
KLE1 211914Z 15017G22KT 15/00 A2988 RMK A01 T01490000  RH  036%=      5-min Rain = 0
KLE1 211915Z 15018KT 15/00 A2988 RMK A01 T015000-0  RH  036%=      5-min Rain = 0
KLE1 211916Z 15016KT 15/M00 A2988 RMK A01 T01481001  RH  036%=      5-min Rain = 0
KLE1 211917Z 16015KT 15/00 A2987 RMK A01 T014800-0  RH  036%=      5-min Rain = 0
KLE1 211918Z 16017KT 15/M00 A2987 RMK A01 T01481001  RH  036%=      5-min Rain = 0
KLE1 211919Z 16018KT 15/M00 A2987 RMK A01 T01481001  RH  036%=      5-min Rain = 0
KLE1 211920Z 15015KT 15/M00 A2987 RMK A01 T01461002  RH  036%=      5-min Rain = 0
KLE1 211921Z 16013KT 15/00 A2987 RMK A01 T014700-0  RH  036%=      5-min Rain = 0
KLE1 211922Z 14015KT 15/00 A2987 RMK A01 T01500002  RH  036%=      5-min Rain = 0
KLE1 211923Z 12017KT 15/00 A2986 RMK A01 T01520000  RH  035%=      5-min Rain = 0
KLE1 211924Z 13015KT 15/M00 A2986 RMK A01 T01511001  RH  035%=      5-min Rain = 0
KLE1 211925Z 13017G22KT 15/00 A2986 RMK A01 T01510000  RH  036%=      5-min Rain = 0
KLE1 211926Z 13019KT 15/00 A2986 RMK A01 T01530001  RH  036%=      5-min Rain = 0
KLE1 211927Z 12017KT 15/00 A2986 RMK A01 T015300-0  RH  035%=      5-min Rain = 0
KLE1 211928Z 12017KT 15/M00 A2986 RMK A01 T01501002  RH  035%=      5-min Rain = 0
KLE1 211929Z 11015KT 15/M00 A2986 RMK A01 T01471001  RH  036%=      5-min Rain = 0
KLE1 211930Z 12017G22KT 15/00 A2985 RMK A01 T01480001  RH  037%=      5-min Rain = 0
KLE1 211931Z 14018KT 15/00 A2985 RMK A01 T01530003  RH  036%=      5-min Rain = 0
KLE1 211932Z 13018KT 15/00 A2985 RMK A01 T01540001  RH  035%=      5-min Rain = 0
KLE1 211933Z 13017KT 15/00 A2985 RMK A01 T01540000  RH  035%=      5-min Rain = 0
KLE1 211934Z 13016KT 15/00 A2985 RMK A01 T015200-0  RH  035%=      5-min Rain = 0
KLE1 211935Z 13013KT 15/M00 A2985 RMK A01 T01501001  RH  036%=      5-min Rain = 0
KLE1 211936Z 13013G19KT 15/00 A2985 RMK A01 T01490001  RH  036%=      5-min Rain = 0
KLE1 211937Z 14020KT 15/00 A2985 RMK A01 T01540004  RH  036%=      5-min Rain = 0
KLE1 211938Z 13023KT 16/00 A2985 RMK A01 T01560002  RH  035%=      5-min Rain = 0
KLE1 211939Z 14020KT 15/00 A2985 RMK A01 T015300-0  RH  035%=      5-min Rain = 0
KLE1 211940Z 14020KT 15/M00 A2985 RMK A01 T01511001  RH  035%=      5-min Rain = 0
KLE1 211941Z 13018KT 15/M00 A2984 RMK A01 T01491001  RH  036%=      5-min Rain = 0
KLE1 211942Z 14017KT 15/00 A2984 RMK A01 T01500000  RH  036%=      5-min Rain = 0
KLE1 211943Z 14018KT 15/00 A2984 RMK A01 T01540004  RH  036%=      5-min Rain = 0
KLE1 211944Z 13018KT 16/00 A2984 RMK A01 T01570002  RH  035%=      5-min Rain = 0
KLE1 211945Z 12018KT 15/00 A2984 RMK A01 T015400-0  RH  035%=      5-min Rain = 0
KLE1 211946Z 13018KT 15/M00 A2984 RMK A01 T01511001  RH  035%=      5-min Rain = 0
KLE1 211947Z 13022KT 15/00 A2984 RMK A01 T01510001  RH  036%=      5-min Rain = 0
KLE1 211948Z 13019KT 15/00 A2984 RMK A01 T015100-0  RH  036%=      5-min Rain = 0
KLE1 211949Z 13017KT 15/00 A2984 RMK A01 T01500000  RH  036%=      5-min Rain = 0
KLE1 211950Z 13017KT 15/00 A2984 RMK A01 T01520001  RH  036%=      5-min Rain = 0
KLE1 211951Z 13018G23KT 15/00 A2984 RMK A01 T01510001  RH  036%=      5-min Rain = 0
KLE1 211952Z 12013KT 15/00 A2984 RMK A01 T01510001  RH  036%=      5-min Rain = 0
KLE1 211953Z 13014KT 15/00 A2984 RMK A01 T01530002  RH  036%=      5-min Rain = 0
KLE1 211954Z 12018KT 15/00 A2983 RMK A01 T01540001  RH  035%=      5-min Rain = 0
KLE1 211955Z 15014G19KT 16/00 A2984 RMK A01 T01550002  RH  035%=      5-min Rain = 0
KLE1 211956Z 14015KT 16/00 A2984 RMK A01 T01550000  RH  035%=      5-min Rain = 0
KLE1 211957Z 13019KT 16/00 A2983 RMK A01 T01560002  RH  035%=      5-min Rain = 0
KLE1 211958Z 14019KT 16/00 A2984 RMK A01 T01600003  RH  034%=      5-min Rain = 0
KLE1 211959Z 13018G27KT 16/00 A2983 RMK A01 T01590001  RH  034%=      5-min Rain = 0
KLE1 212000Z 14024KT 16/00 A2983 RMK A01 T01580002  RH  034%=      5-min Rain = 0
KLE1 212001Z 14022G27KT 16/00 A2983 RMK A01 T01580002  RH  034%=      5-min Rain = 0
KLE1 212002Z 13022KT 16/00 A2983 RMK A01 T01590002  RH  034%=      5-min Rain = 0
KLE1 212003Z 15019KT 16/00 A2983 RMK A01 T01590002  RH  034%=      5-min Rain = 0
KLE1 212004Z 14018G23KT 16/00 A2983 RMK A01 T01600001  RH  034%=      5-min Rain = 0
KLE1 212005Z 13019KT 16/00 A2983 RMK A01 T015700-0  RH  034%=      5-min Rain = 0
KLE1 212006Z 13020G26KT 16/00 A2983 RMK A01 T01560001  RH  035%=      5-min Rain = 0
KLE1 212007Z 14019KT 16/00 A2983 RMK A01 T01570001  RH  034%=      5-min Rain = 0
KLE1 212008Z 14022KT 16/00 A2983 RMK A01 T015600-0  RH  035%=      5-min Rain = 0
KLE1 212009Z 13018G23KT 16/00 A2983 RMK A01 T01570001  RH  035%=      5-min Rain = 0
KLE1 212010Z 14022KT 16/00 A2983 RMK A01 T01600001  RH  034%=      5-min Rain = 0
KLE1 212011Z 13020G25KT 16/M00 A2983 RMK A01 T01581002  RH  034%=      5-min Rain = 0
KLE1 212012Z 12022KT 16/M00 A2983 RMK A01 T01581001  RH  034%=      5-min Rain = 0
KLE1 212013Z 12021KT 16/M00 A2983 RMK A01 T01581002  RH  033%=      5-min Rain = 0
KLE1 212014Z 12022KT 16/M00 A2982 RMK A01 T01561002  RH  034%=      5-min Rain = 0
KLE1 212015Z 13023KT 16/M00 A2982 RMK A01 T01551003  RH  034%=      5-min Rain = 0
KLE1 212016Z 12023KT 15/M00 A2982 RMK A01 T01531003  RH  034%=      5-min Rain = 0
KLE1 212017Z 12019KT 15/M00 A2982 RMK A01 T01521004  RH  034%=      5-min Rain = 0
KLE1 212018Z 12020KT 15/M00 A2982 RMK A01 T01531002  RH  035%=      5-min Rain = 0
KLE1 212019Z 12017G22KT 16/M00 A2982 RMK A01 T01551003  RH  034%=      5-min Rain = 0
KLE1 212020Z 12021G27KT 16/M00 A2982 RMK A01 T01551002  RH  034%=      5-min Rain = 0
KLE1 212021Z 12021KT 16/M00 A2982 RMK A01 T01551003  RH  034%=      5-min Rain = 0
KLE1 212022Z 12023KT 15/M00 A2982 RMK A01 T01531003  RH  034%=      5-min Rain = 0
KLE1 212023Z 12021KT 15/M00 A2982 RMK A01 T01541003  RH  034%=      5-min Rain = 0
KLE1 212024Z 13023G28KT 16/M00 A2982 RMK A01 T01551002  RH  034%=      5-min Rain = 0
KLE1 212025Z 13019KT 16/M00 A2982 RMK A01 T01561002  RH  034%=      5-min Rain = 0
KLE1 212026Z 13019KT 16/M00 A2982 RMK A01 T01571002  RH  034%=      5-min Rain = 0
KLE1 212027Z 13018KT 16/M00 A2982 RMK A01 T01571003  RH  034%=      5-min Rain = 0
KLE1 212028Z 14018G23KT 16/M00 A2982 RMK A01 T01581001  RH  034%=      5-min Rain = 0
KLE1 212029Z 14022KT 16/M00 A2982 RMK A01 T01591002  RH  033%=      5-min Rain = 0
KLE1 212030Z 13020KT 16/M00 A2982 RMK A01 T01581002  RH  034%=      5-min Rain = 0
KLE1 212031Z 13018KT 16/M00 A2982 RMK A01 T01581003  RH  033%=      5-min Rain = 0
KLE1 212032Z 14018KT 16/M00 A2982 RMK A01 T01561002  RH  034%=      5-min Rain = 0
KLE1 212033Z 14023G28KT 16/M00 A2982 RMK A01 T01591001  RH  034%=      5-min Rain = 0
KLE1 212034Z 13024KT 16/M00 A2982 RMK A01 T01581003  RH  033%=      5-min Rain = 0
KLE1 212035Z 14021KT 16/M00 A2982 RMK A01 T01561004  RH  034%=      5-min Rain = 0
KLE1 212036Z 13022KT 16/M00 A2982 RMK A01 T01581002  RH  034%=      5-min Rain = 0
KLE1 212037Z 13022KT 16/M01 A2982 RMK A01 T01581006  RH  033%=      5-min Rain = 0
KLE1 212038Z 13024KT 15/M01 A2982 RMK A01 T01541008  RH  033%=      5-min Rain = 0
KLE1 212039Z 13017G22KT 15/M01 A2982 RMK A01 T01521008  RH  033%=      5-min Rain = 0
KLE1 212040Z 13018G24KT 15/M01 A2982 RMK A01 T01541006  RH  034%=      5-min Rain = 0
KLE1 212041Z 12024KT 16/M01 A2982 RMK A01 T01561005  RH  033%=      5-min Rain = 0
KLE1 212042Z 13020G26KT 16/M01 A2982 RMK A01 T01571006  RH  033%=      5-min Rain = 0
KLE1 212043Z 13021G26KT 16/M01 A2982 RMK A01 T01551007  RH  033%=      5-min Rain = 0
KLE1 212044Z 13021G26KT 16/M01 A2982 RMK A01 T01551006  RH  033%=      5-min Rain = 0
KLE1 212045Z 14018KT 16/M01 A2982 RMK A01 T01561006  RH  033%=      5-min Rain = 0
KLE1 212046Z 13020KT 16/M01 A2982 RMK A01 T01561006  RH  033%=      5-min Rain = 0
KLE1 212047Z 12021KT 16/M01 A2982 RMK A01 T01571007  RH  033%=      5-min Rain = 0
KLE1 212048Z 12019KT 16/M01 A2982 RMK A01 T01571007  RH  033%=      5-min Rain = 0
KLE1 212049Z 13020KT 16/M01 A2982 RMK A01 T01571007  RH  033%=      5-min Rain = 0
KLE1 212050Z 12022KT 16/M01 A2982 RMK A01 T01571007  RH  033%=      5-min Rain = 0
KLE1 212051Z 13019KT 16/M01 A2982 RMK A01 T01581007  RH  032%=      5-min Rain = 0
KLE1 212052Z 12018KT 16/M01 A2982 RMK A01 T01571007  RH  032%=      5-min Rain = 0
KLE1 212053Z 13018KT 16/M01 A2982 RMK A01 T01571008  RH  032%=      5-min Rain = 0
KLE1 212054Z 13018KT 16/M01 A2982 RMK A01 T01571007  RH  033%=      5-min Rain = 0
KLE1 212055Z 13016KT 16/M01 A2982 RMK A01 T01571007  RH  033%=      5-min Rain = 0
KLE1 212056Z 14019G25KT 16/M01 A2982 RMK A01 T01591006  RH  032%=      5-min Rain = 0
KLE1 212057Z 14021KT 16/M01 A2982 RMK A01 T01591008  RH  032%=      5-min Rain = 0
KLE1 212058Z 14022KT 16/M01 A2982 RMK A01 T01571008  RH  032%=      5-min Rain = 0
KLE1 212059Z 12025KT 16/M01 A2982 RMK A01 T01561008  RH  032%=      5-min Rain = 0
KLE1 212100Z 13025KT 15/M01 A2982 RMK A01 T01531010  RH  033%=      5-min Rain = 0
KLE1 212101Z 13021KT 15/M01 A2982 RMK A01 T01511010  RH  033%=      5-min Rain = 0
KLE1 212102Z 12019KT 15/M01 A2982 RMK A01 T01511009  RH  033%=      5-min Rain = 0
KLE1 212103Z 13022KT 15/M01 A2982 RMK A01 T01521008  RH  033%=      5-min Rain = 0
KLE1 212104Z 13021KT 15/M01 A2982 RMK A01 T01541007  RH  033%=      5-min Rain = 0
KLE1 212105Z 13019KT 15/M01 A2982 RMK A01 T01541007  RH  033%=      5-min Rain = 0
KLE1 212106Z 14021G26KT 16/M01 A2982 RMK A01 T01561005  RH  033%=      5-min Rain = 0
KLE1 212107Z 14019KT 16/M01 A2982 RMK A01 T01581006  RH  033%=      5-min Rain = 0
KLE1 212108Z 13023KT 16/M01 A2982 RMK A01 T01571007  RH  032%=      5-min Rain = 0
KLE1 212109Z 13021KT 15/M01 A2982 RMK A01 T01541008  RH  033%=      5-min Rain = 0
KLE1 212110Z 12023KT 15/M01 A2982 RMK A01 T01541007  RH  033%=      5-min Rain = 0
KLE1 212111Z 12019KT 15/M01 A2982 RMK A01 T01531008  RH  033%=      5-min Rain = 0
KLE1 212112Z 13024KT 15/M01 A2982 RMK A01 T01511008  RH  034%=      5-min Rain = 0
KLE1 212113Z 13021KT 15/M01 A2982 RMK A01 T01511007  RH  034%=      5-min Rain = 0
KLE1 212114Z 13022KT 15/M01 A2982 RMK A01 T01511007  RH  034%=      5-min Rain = 0
KLE1 212115Z 12023KT 15/M01 A2982 RMK A01 T01521006  RH  034%=      5-min Rain = 0
KLE1 212116Z 12022KT 15/M01 A2982 RMK A01 T01521007  RH  034%=      5-min Rain = 0
KLE1 212117Z 14022KT 15/M01 A2982 RMK A01 T01521006  RH  034%=      5-min Rain = 0
KLE1 212118Z 13022KT 15/M01 A2982 RMK A01 T01521006  RH  034%=      5-min Rain = 0
KLE1 212119Z 13021KT 15/M01 A2982 RMK A01 T01531006  RH  034%=      5-min Rain = 0
KLE1 212120Z 13022KT 15/M01 A2982 RMK A01 T01531006  RH  034%=      5-min Rain = 0
KLE1 212121Z 12021KT 15/M01 A2982 RMK A01 T01531006  RH  034%=      5-min Rain = 0
KLE1 212122Z 12024KT 15/M01 A2981 RMK A01 T01531006  RH  034%=      5-min Rain = 0
KLE1 212123Z 12022KT 15/M01 A2981 RMK A01 T01521007  RH  034%=      5-min Rain = 0
KLE1 212124Z 12019KT 15/M01 A2982 RMK A01 T01511006  RH  034%=      5-min Rain = 0
KLE1 212125Z 12019G25KT 15/M01 A2982 RMK A01 T01511005  RH  034%=      5-min Rain = 0
KLE1 212126Z 13021KT 15/M00 A2982 RMK A01 T01531004  RH  034%=      5-min Rain = 0
KLE1 212127Z 14020G26KT 16/M00 A2982 RMK A01 T01561003  RH  034%=      5-min Rain = 0
KLE1 212128Z 14020KT 16/M01 A2982 RMK A01 T01571005  RH  033%=      5-min Rain = 0
KLE1 212129Z 14018KT 15/M01 A2982 RMK A01 T01541006  RH  033%=      5-min Rain = 0
KLE1 212130Z 14020KT 15/M01 A2982 RMK A01 T01541005  RH  034%=      5-min Rain = 0
KLE1 212131Z 15019KT 16/M01 A2982 RMK A01 T01551005  RH  034%=      5-min Rain = 0
KLE1 212132Z 13022KT 16/M01 A2982 RMK A01 T01551005  RH  033%=      5-min Rain = 0
KLE1 212133Z 13022KT 15/M01 A2981 RMK A01 T01541005  RH  034%=      5-min Rain = 0
KLE1 212134Z 13025KT 15/M01 A2981 RMK A01 T01541005  RH  034%=      5-min Rain = 0
KLE1 212135Z 13023KT 15/M01 A2982 RMK A01 T01521006  RH  034%=      5-min Rain = 0
KLE1 212136Z 13022KT 15/M01 A2982 RMK A01 T01511005  RH  034%=      5-min Rain = 0
KLE1 212137Z 13021KT 15/M01 A2981 RMK A01 T01491006  RH  035%=      5-min Rain = 0
KLE1 212138Z 13019KT 15/M00 A2982 RMK A01 T01501004  RH  035%=      5-min Rain = 0
KLE1 212139Z 12019KT 15/M00 A2981 RMK A01 T01511004  RH  035%=      5-min Rain = 0
KLE1 212140Z 12023KT 15/M01 A2981 RMK A01 T01501005  RH  035%=      5-min Rain = 0
KLE1 212141Z 12024KT 15/M01 A2981 RMK A01 T01501005  RH  034%=      5-min Rain = 0
KLE1 212142Z 13020G25KT 15/M01 A2982 RMK A01 T01501005  RH  035%=      5-min Rain = 0
KLE1 212143Z 13019KT 15/M00 A2982 RMK A01 T01521003  RH  035%=      5-min Rain = 0
KLE1 212144Z 13020KT 15/M00 A2982 RMK A01 T01531003  RH  034%=      5-min Rain = 0
KLE1 212145Z 12022KT 15/M00 A2982 RMK A01 T01531003  RH  034%=      5-min Rain = 0
KLE1 212146Z 12021KT 15/M00 A2982 RMK A01 T01521003  RH  035%=      5-min Rain = 0
KLE1 212147Z 13019KT 15/M00 A2982 RMK A01 T01531002  RH  035%=      5-min Rain = 0
KLE1 212148Z 12020KT 15/M00 A2982 RMK A01 T01531003  RH  034%=      5-min Rain = 0
KLE1 212149Z 12020KT 15/M00 A2982 RMK A01 T01521003  RH  035%=      5-min Rain = 0
KLE1 212150Z 12022KT 15/M00 A2982 RMK A01 T01531003  RH  035%=      5-min Rain = 0
KLE1 212151Z 13020G26KT 15/M00 A2982 RMK A01 T01521003  RH  034%=      5-min Rain = 0
KLE1 212152Z 13023KT 15/M00 A2982 RMK A01 T01521003  RH  035%=      5-min Rain = 0
KLE1 212153Z 13024KT 15/M00 A2982 RMK A01 T01521003  RH  035%=      5-min Rain = 0
KLE1 212154Z 13022KT 15/M00 A2982 RMK A01 T01511004  RH  035%=      5-min Rain = 0
KLE1 212155Z 13020KT 15/M00 A2982 RMK A01 T01501004  RH  035%=      5-min Rain = 0
KLE1 212156Z 14019G26KT 15/M00 A2982 RMK A01 T01511003  RH  035%=      5-min Rain = 0
KLE1 212157Z 14020KT 15/M00 A2982 RMK A01 T01541001  RH  035%=      5-min Rain = 0
KLE1 212158Z 14020KT 16/M00 A2982 RMK A01 T01561001  RH  034%=      5-min Rain = 0
KLE1 212159Z 14020G25KT 16/M00 A2982 RMK A01 T01561002  RH  034%=      5-min Rain = 0
KLE1 212200Z 14019KT 16/M00 A2982 RMK A01 T01561002  RH  034%=      5-min Rain = 0
KLE1 212201Z 13018KT 15/M00 A2982 RMK A01 T01541003  RH  034%=      5-min Rain = 0
KLE1 212202Z 12020KT 15/M00 A2982 RMK A01 T01521003  RH  035%=      5-min Rain = 0
KLE1 212203Z 12017KT 15/M00 A2982 RMK A01 T01511003  RH  035%=      5-min Rain = 0
KLE1 212204Z 12018G28KT 15/M00 A2982 RMK A01 T01511002  RH  035%=      5-min Rain = 0
KLE1 212205Z 13023KT 15/M00 A2982 RMK A01 T01521002  RH  035%=      5-min Rain = 0
KLE1 212206Z 13018KT 15/M00 A2982 RMK A01 T01511003  RH  035%=      5-min Rain = 0
KLE1 212207Z 13018KT 15/M00 A2982 RMK A01 T01511002  RH  035%=      5-min Rain = 0
KLE1 212208Z 14019G24KT 15/00 A2982 RMK A01 T015300-0  RH  035%=      5-min Rain = 0
KLE1 212209Z 14019KT 15/M00 A2982 RMK A01 T01541001  RH  035%=      5-min Rain = 0
KLE1 212210Z 14017KT 15/M00 A2982 RMK A01 T01521003  RH  035%=      5-min Rain = 0
KLE1 212211Z 14019G24KT 15/M00 A2982 RMK A01 T01501003  RH  035%=      5-min Rain = 0
KLE1 212212Z 14021KT 15/M00 A2982 RMK A01 T01501003  RH  035%=      5-min Rain = 0
KLE1 212213Z 13021KT 15/M00 A2982 RMK A01 T01501003  RH  035%=      5-min Rain = 0
KLE1 212214Z 13023KT 15/M00 A2982 RMK A01 T01501003  RH  035%=      5-min Rain = 0
KLE1 212215Z 14023KT 15/M00 A2982 RMK A01 T01501003  RH  035%=      5-min Rain = 0
KLE1 212216Z 13020KT 15/M00 A2982 RMK A01 T01501003  RH  035%=      5-min Rain = 0
KLE1 212217Z 13019KT 15/M00 A2982 RMK A01 T01501003  RH  035%=      5-min Rain = 0
KLE1 212218Z 12018KT 15/M00 A2982 RMK A01 T01491003  RH  035%=      5-min Rain = 0
KLE1 212219Z 13021KT 15/M00 A2982 RMK A01 T01501002  RH  035%=      5-min Rain = 0
KLE1 212220Z 13019KT 15/M00 A2982 RMK A01 T01511002  RH  035%=      5-min Rain = 0
KLE1 212221Z 13017KT 15/M00 A2982 RMK A01 T01511003  RH  035%=      5-min Rain = 0
KLE1 212222Z 13015KT 15/M00 A2982 RMK A01 T01511003  RH  035%=      5-min Rain = 0
KLE1 212223Z 13017G22KT 15/M00 A2982 RMK A01 T01511003  RH  035%=      5-min Rain = 0
KLE1 212224Z 13024KT 15/M00 A2982 RMK A01 T01511003  RH  035%=      5-min Rain = 0
KLE1 212225Z 12021KT 15/M01 A2982 RMK A01 T01491005  RH  035%=      5-min Rain = 0
KLE1 212226Z 12021KT 15/M01 A2982 RMK A01 T01481005  RH  035%=      5-min Rain = 0
KLE1 212227Z 12017G25KT 15/M01 A2982 RMK A01 T01481005  RH  035%=      5-min Rain = 0
KLE1 212228Z 13023KT 15/M00 A2982 RMK A01 T01481004  RH  035%=      5-min Rain = 0
KLE1 212229Z 13022KT 15/M01 A2982 RMK A01 T01471005  RH  035%=      5-min Rain = 0
KLE1 212230Z 12018KT 15/M01 A2982 RMK A01 T01461005  RH  035%=      5-min Rain = 0
KLE1 212231Z 13015G20KT 15/M01 A2982 RMK A01 T01461005  RH  036%=      5-min Rain = 0
KLE1 212232Z 12019KT 15/M00 A2982 RMK A01 T01471004  RH  035%=      5-min Rain = 0
KLE1 212233Z 13020G26KT 15/M01 A2982 RMK A01 T01481005  RH  035%=      5-min Rain = 0
KLE1 212234Z 12018KT 15/M01 A2982 RMK A01 T01471006  RH  035%=      5-min Rain = 0
KLE1 212235Z 12021KT 15/M01 A2982 RMK A01 T01451006  RH  035%=      5-min Rain = 0
KLE1 212236Z 12019G24KT 15/M01 A2982 RMK A01 T01451005  RH  036%=      5-min Rain = 0
KLE1 212237Z 12022KT 15/M01 A2982 RMK A01 T01461005  RH  035%=      5-min Rain = 0
KLE1 212238Z 13020KT 15/M01 A2982 RMK A01 T01461006  RH  035%=      5-min Rain = 0
KLE1 212239Z 13020KT 15/M01 A2982 RMK A01 T01451006  RH  035%=      5-min Rain = 0
KLE1 212240Z 12019KT 15/M01 A2982 RMK A01 T01451006  RH  036%=      5-min Rain = 0
KLE1 212241Z 12021G27KT 14/M01 A2982 RMK A01 T01441006  RH  036%=      5-min Rain = 0
KLE1 212242Z 13021KT 15/M01 A2982 RMK A01 T01451005  RH  036%=      5-min Rain = 0
KLE1 212243Z 13022KT 15/M01 A2982 RMK A01 T01461005  RH  036%=      5-min Rain = 0
KLE1 212244Z 13020KT 15/M01 A2982 RMK A01 T01461005  RH  035%=      5-min Rain = 0
KLE1 212245Z 13018KT 15/M01 A2982 RMK A01 T01461006  RH  035%=      5-min Rain = 0
KLE1 212246Z 13019KT 15/M01 A2982 RMK A01 T01451006  RH  035%=      5-min Rain = 0
KLE1 212247Z 13017KT 15/M01 A2982 RMK A01 T01451005  RH  036%=      5-min Rain = 0
KLE1 212248Z 12018KT 15/M01 A2982 RMK A01 T01461005  RH  035%=      5-min Rain = 0
KLE1 212249Z 13018KT 15/M01 A2982 RMK A01 T01451006  RH  035%=      5-min Rain = 0
KLE1 212250Z 13019KT 15/M01 A2982 RMK A01 T01451005  RH  036%=      5-min Rain = 0
KLE1 212251Z 13018KT 14/M01 A2982 RMK A01 T01441007  RH  035%=      5-min Rain = 0
KLE1 212252Z 12020KT 14/M01 A2982 RMK A01 T01431007  RH  036%=      5-min Rain = 0
KLE1 212253Z 11017KT 14/M01 A2982 RMK A01 T01421007  RH  036%=      5-min Rain = 0
KLE1 212254Z 11021KT 14/M01 A2982 RMK A01 T01431005  RH  036%=      5-min Rain = 0
KLE1 212255Z 13021KT 14/M01 A2982 RMK A01 T01441006  RH  036%=      5-min Rain = 0
KLE1 212256Z 12021KT 14/M01 A2982 RMK A01 T01431007  RH  036%=      5-min Rain = 0
KLE1 212257Z 12020KT 14/M01 A2982 RMK A01 T01421007  RH  036%=      5-min Rain = 0
KLE1 212258Z 11021KT 14/M01 A2982 RMK A01 T01411007  RH  036%=      5-min Rain = 0
KLE1 212259Z 12020G26KT 14/M01 A2983 RMK A01 T01411007  RH  036%=      5-min Rain = 0
KLE1 212300Z 13021KT 14/M01 A2983 RMK A01 T01411007  RH  036%=      5-min Rain = 0
KLE1 212301Z 12021KT 14/M01 A2983 RMK A01 T01411007  RH  036%=      5-min Rain = 0
KLE1 212302Z 12020KT 14/M01 A2983 RMK A01 T01401007  RH  036%=      5-min Rain = 0
KLE1 212303Z 11022KT 14/M01 A2983 RMK A01 T01391007  RH  036%=      5-min Rain = 0
KLE1 212304Z 11021KT 14/M01 A2983 RMK A01 T01391007  RH  037%=      5-min Rain = 0
KLE1 212305Z 12022KT 14/M01 A2983 RMK A01 T01391007  RH  037%=      5-min Rain = 0
KLE1 212306Z 12021G26KT 14/M01 A2983 RMK A01 T01391007  RH  037%=      5-min Rain = 0
KLE1 212307Z 12020KT 14/M01 A2983 RMK A01 T01391007  RH  037%=      5-min Rain = 0
KLE1 212308Z 12022KT 14/M01 A2983 RMK A01 T01381007  RH  037%=      5-min Rain = 0
KLE1 212309Z 12022KT 14/M01 A2983 RMK A01 T01381007  RH  037%=      5-min Rain = 0
KLE1 212310Z 12021KT 14/M01 A2983 RMK A01 T01371007  RH  037%=      5-min Rain = 0
KLE1 212311Z 13018KT 14/M01 A2983 RMK A01 T01371007  RH  037%=      5-min Rain = 0
KLE1 212312Z 13017KT 14/M01 A2983 RMK A01 T01381007  RH  037%=      5-min Rain = 0
KLE1 212313Z 13019G24KT 14/M01 A2983 RMK A01 T01391006  RH  037%=      5-min Rain = 0
KLE1 212314Z 13021KT 14/M01 A2983 RMK A01 T01381007  RH  037%=      5-min Rain = 0
KLE1 212315Z 13018KT 14/M01 A2983 RMK A01 T01371007  RH  037%=      5-min Rain = 0
KLE1 212316Z 13018KT 14/M01 A2983 RMK A01 T01371007  RH  037%=      5-min Rain = 0
KLE1 212317Z 12021KT 14/M01 A2983 RMK A01 T01371007  RH  037%=      5-min Rain = 0
KLE1 212318Z 12020KT 14/M01 A2983 RMK A01 T01361008  RH  037%=      5-min Rain = 0
KLE1 212319Z 12021KT 14/M01 A2983 RMK A01 T01351008  RH  037%=      5-min Rain = 0
KLE1 212320Z 12018KT 14/M01 A2983 RMK A01 T01351007  RH  037%=      5-min Rain = 0
KLE1 212321Z 13019KT 14/M01 A2983 RMK A01 T01351007  RH  038%=      5-min Rain = 0
KLE1 212322Z 12021KT 14/M01 A2983 RMK A01 T01351007  RH  037%=      5-min Rain = 0
KLE1 212323Z 12022KT 13/M01 A2983 RMK A01 T01341008  RH  037%=      5-min Rain = 0
KLE1 212324Z 12021KT 13/M01 A2983 RMK A01 T01341008  RH  038%=      5-min Rain = 0
KLE1 212325Z 12022KT 13/M01 A2983 RMK A01 T01331008  RH  038%=      5-min Rain = 0
KLE1 212326Z 13021KT 13/M01 A2983 RMK A01 T01331008  RH  038%=      5-min Rain = 0
KLE1 212327Z 12018KT 13/M01 A2983 RMK A01 T01331008  RH  038%=      5-min Rain = 0
KLE1 212328Z 12017KT 13/M01 A2983 RMK A01 T01331008  RH  038%=      5-min Rain = 0
KLE1 212329Z 12019KT 13/M01 A2983 RMK A01 T01331009  RH  038%=      5-min Rain = 0
KLE1 212330Z 12019KT 13/M01 A2983 RMK A01 T01331008  RH  038%=      5-min Rain = 0
KLE1 212331Z 12020KT 13/M01 A2983 RMK A01 T01321009  RH  038%=      5-min Rain = 0
KLE1 212332Z 12017KT 13/M01 A2983 RMK A01 T01321009  RH  038%=      5-min Rain = 0
KLE1 212333Z 12020KT 13/M01 A2983 RMK A01 T01321008  RH  038%=      5-min Rain = 0
KLE1 212334Z 12017KT 13/M01 A2983 RMK A01 T01321009  RH  038%=      5-min Rain = 0
KLE1 212335Z 12019KT 13/M01 A2983 RMK A01 T01321009  RH  038%=      5-min Rain = 0
KLE1 212336Z 12019KT 13/M01 A2983 RMK A01 T01311010  RH  038%=      5-min Rain = 0
KLE1 212337Z 12019KT 13/M01 A2983 RMK A01 T01311010  RH  038%=      5-min Rain = 0
KLE1 212338Z 12016KT 13/M01 A2983 RMK A01 T01301010  RH  038%=      5-min Rain = 0
KLE1 212339Z 11018KT 13/M01 A2983 RMK A01 T01301010  RH  038%=      5-min Rain = 0
KLE1 212340Z 12021KT 13/M01 A2983 RMK A01 T01301010  RH  038%=      5-min Rain = 0
KLE1 212341Z 12019KT 13/M01 A2984 RMK A01 T01301010  RH  038%=      5-min Rain = 0
KLE1 212342Z 12020KT 13/M01 A2984 RMK A01 T01291011  RH  038%=      5-min Rain = 0
KLE1 212343Z 12020KT 13/M01 A2984 RMK A01 T01281011  RH  038%=      5-min Rain = 0
KLE1 212344Z 12020KT 13/M01 A2984 RMK A01 T01281011  RH  038%=      5-min Rain = 0
KLE1 212345Z 12018KT 13/M01 A2984 RMK A01 T01281011  RH  038%=      5-min Rain = 0
KLE1 212346Z 12020KT 13/M01 A2984 RMK A01 T01271012  RH  038%=      5-min Rain = 0
KLE1 212347Z 12020KT 13/M01 A2984 RMK A01 T01271012  RH  038%=      5-min Rain = 0
KLE1 212348Z 12021KT 13/M01 A2984 RMK A01 T01261013  RH  038%=      5-min Rain = 0
KLE1 212349Z 12018KT 13/M01 A2984 RMK A01 T01261013  RH  038%=      5-min Rain = 0
KLE1 212350Z 12019KT 13/M01 A2984 RMK A01 T01251013  RH  038%=      5-min Rain = 0
KLE1 212351Z 12020KT 13/M01 A2984 RMK A01 T01251013  RH  038%=      5-min Rain = 0
KLE1 212352Z 12017KT 12/M01 A2984 RMK A01 T01241014  RH  038%=      5-min Rain = 0
KLE1 212353Z 12016KT 12/M01 A2984 RMK A01 T01241014  RH  038%=      5-min Rain = 0
KLE1 212354Z 12020KT 12/M01 A2984 RMK A01 T01231014  RH  038%=      5-min Rain = 0
KLE1 212355Z 12018KT 12/M01 A2984 RMK A01 T01231014  RH  038%=      5-min Rain = 0
KLE1 212356Z 12017KT 12/M01 A2984 RMK A01 T01231014  RH  039%=      5-min Rain = 0
KLE1 212357Z 12018KT 12/M01 A2984 RMK A01 T01221014  RH  039%=      5-min Rain = 0
KLE1 212358Z 12018KT 12/M02 A2984 RMK A01 T01221015  RH  039%=      5-min Rain = 0
KLE1 212359Z 12017G22KT 12/M02 A2984 RMK A01 T01211015  RH  039%=      5-min Rain = 0
KLE1 220000Z 12017KT 12/M02 A2984 RMK A01 T01211015  RH  039%=      5-min Rain = 0
KLE1 220001Z 12016KT 12/M02 A2984 RMK A01 T01201015  RH  039%=      5-min Rain = 0
KLE1 220002Z 12017KT 12/M02 A2984 RMK A01 T01201015  RH  039%=      5-min Rain = 0
KLE1 220003Z 12019KT 12/M02 A2984 RMK A01 T01191015  RH  039%=      5-min Rain = 0
KLE1 220004Z 11019KT 12/M02 A2984 RMK A01 T01191016  RH  039%=      5-min Rain = 0
KLE1 220005Z 12020KT 12/M02 A2984 RMK A01 T01181017  RH  039%=      5-min Rain = 0
KLE1 220006Z 12019KT 12/M02 A2984 RMK A01 T01171017  RH  039%=      5-min Rain = 0
KLE1 220007Z 12018KT 12/M02 A2984 RMK A01 T01161017  RH  039%=      5-min Rain = 0
KLE1 220008Z 12019KT 12/M02 A2984 RMK A01 T01161017  RH  040%=      5-min Rain = 0
KLE1 220009Z 11018G23KT 12/M02 A2984 RMK A01 T01151018  RH  040%=      5-min Rain = 0
KLE1 220010Z 11022KT 11/M02 A2984 RMK A01 T01141019  RH  040%=      5-min Rain = 0
KLE1 220011Z 11019KT 11/M02 A2984 RMK A01 T01141019  RH  039%=      5-min Rain = 0
KLE1 220012Z 11019KT 11/M02 A2984 RMK A01 T01131019  RH  040%=      5-min Rain = 0
KLE1 220013Z 11020KT 11/M02 A2984 RMK A01 T01131020  RH  040%=      5-min Rain = 0
KLE1 220014Z 11021KT 11/M02 A2984 RMK A01 T01121020  RH  040%=      5-min Rain = 0
KLE1 220015Z 11019KT 11/M02 A2984 RMK A01 T01121020  RH  040%=      5-min Rain = 0
KLE1 220016Z 11021KT 11/M02 A2984 RMK A01 T01111020  RH  040%=      5-min Rain = 0
KLE1 220017Z 11019KT 11/M02 A2984 RMK A01 T01111019  RH  040%=      5-min Rain = 0
KLE1 220018Z 11021KT 11/M02 A2984 RMK A01 T01111020  RH  040%=      5-min Rain = 0
KLE1 220019Z 12021KT 11/M02 A2984 RMK A01 T01111020  RH  040%=      5-min Rain = 0
KLE1 220020Z 12020KT 11/M02 A2984 RMK A01 T01111019  RH  040%=      5-min Rain = 0
KLE1 220021Z 12019KT 11/M02 A2985 RMK A01 T01101020  RH  040%=      5-min Rain = 0
KLE1 220022Z 12020KT 11/M02 A2984 RMK A01 T01091020  RH  040%=      5-min Rain = 0
KLE1 220023Z 12022KT 11/M02 A2984 RMK A01 T01091021  RH  040%=      5-min Rain = 0
KLE1 220024Z 12021KT 11/M02 A2985 RMK A01 T01091021  RH  040%=      5-min Rain = 0
KLE1 220025Z 12020KT 11/M02 A2985 RMK A01 T01091021  RH  040%=      5-min Rain = 0
KLE1 220026Z 12020KT 11/M02 A2985 RMK A01 T01081021  RH  040%=      5-min Rain = 0
KLE1 220027Z 12018KT 11/M02 A2985 RMK A01 T01071022  RH  040%=      5-min Rain = 0
KLE1 220028Z 12020KT 11/M02 A2985 RMK A01 T01071022  RH  041%=      5-min Rain = 0
KLE1 220029Z 12017KT 11/M02 A2985 RMK A01 T01061022  RH  041%=      5-min Rain = 0
KLE1 220030Z 12018KT 11/M02 A2985 RMK A01 T01051023  RH  041%=      5-min Rain = 0
KLE1 220031Z 12017KT 11/M02 A2985 RMK A01 T01051023  RH  041%=      5-min Rain = 0
KLE1 220032Z 12019KT 10/M02 A2985 RMK A01 T01041024  RH  041%=      5-min Rain = 0
KLE1 220033Z 12018KT 10/M02 A2985 RMK A01 T01041024  RH  041%=      5-min Rain = 0
KLE1 220034Z 12019KT 10/M02 A2985 RMK A01 T01041024  RH  041%=      5-min Rain = 0
KLE1 220035Z 12017KT 10/M03 A2985 RMK A01 T01031025  RH  041%=      5-min Rain = 0
KLE1 220036Z 12017KT 10/M03 A2986 RMK A01 T01031025  RH  041%=      5-min Rain = 0
KLE1 220037Z 12018KT 10/M03 A2986 RMK A01 T01021025  RH  041%=      5-min Rain = 0
KLE1 220038Z 12017KT 10/M03 A2986 RMK A01 T01021025  RH  041%=      5-min Rain = 0
KLE1 220039Z 12017KT 10/M03 A2986 RMK A01 T01021026  RH  041%=      5-min Rain = 0
KLE1 220040Z 12016KT 10/M03 A2986 RMK A01 T01021027  RH  041%=      5-min Rain = 0
KLE1 220041Z 12016KT 10/M03 A2986 RMK A01 T01011027  RH  041%=      5-min Rain = 0
KLE1 220042Z 12016KT 10/M03 A2986 RMK A01 T01001028  RH  041%=      5-min Rain = 0
KLE1 220043Z 12016KT 10/M03 A2986 RMK A01 T00991028  RH  041%=      5-min Rain = 0
KLE1 220044Z 12018KT 10/M03 A2986 RMK A01 T00991028  RH  041%=      5-min Rain = 0
KLE1 220045Z 12018KT 10/M03 A2986 RMK A01 T00991029  RH  041%=      5-min Rain = 0
KLE1 220046Z 12017KT 10/M03 A2986 RMK A01 T00991029  RH  040%=      5-min Rain = 0
KLE1 220047Z 12017KT 10/M03 A2986 RMK A01 T00991030  RH  040%=      5-min Rain = 0
KLE1 220048Z 12015KT 10/M03 A2986 RMK A01 T00981030  RH  040%=      5-min Rain = 0
KLE1 220049Z 12016KT 10/M03 A2986 RMK A01 T00971030  RH  041%=      5-min Rain = 0
KLE1 220050Z 12016KT 10/M03 A2986 RMK A01 T00961031  RH  041%=      5-min Rain = 0
KLE1 220051Z 12015KT 10/M03 A2986 RMK A01 T00961031  RH  041%=      5-min Rain = 0
KLE1 220052Z 11015KT 10/M03 A2986 RMK A01 T00951031  RH  041%=      5-min Rain = 0
KLE1 220053Z 11014KT 09/M03 A2987 RMK A01 T00941031  RH  041%=      5-min Rain = 0
KLE1 220054Z 11014KT 09/M03 A2987 RMK A01 T00931031  RH  041%=      5-min Rain = 0
KLE1 220055Z 11014KT 09/M03 A2987 RMK A01 T00921032  RH  042%=      5-min Rain = 0
KLE1 220056Z 11016KT 09/M03 A2987 RMK A01 T00911032  RH  042%=      5-min Rain = 0
KLE1 220057Z 12016KT 09/M03 A2987 RMK A01 T00911033  RH  042%=      5-min Rain = 0
KLE1 220058Z 11016KT 09/M03 A2987 RMK A01 T00911033  RH  041%=      5-min Rain = 0
KLE1 220059Z 11015KT 09/M03 A2987 RMK A01 T00911033  RH  041%=      5-min Rain = 0
KLE1 220100Z 12015KT 09/M03 A2987 RMK A01 T00911034  RH  041%=      5-min Rain = 0
KLE1 220101Z 12016KT 09/M04 A2987 RMK A01 T00901035  RH  041%=      5-min Rain = 0
KLE1 220102Z 11016KT 09/M03 A2987 RMK A01 T00901034  RH  041%=      5-min Rain = 0
KLE1 220103Z 12017KT 09/M03 A2987 RMK A01 T00901034  RH  041%=      5-min Rain = 0
KLE1 220104Z 11016KT 09/M04 A2987 RMK A01 T00901035  RH  041%=      5-min Rain = 0
KLE1 220105Z 12016KT 09/M04 A2987 RMK A01 T00901035  RH  041%=      5-min Rain = 0
KLE1 220106Z 11017KT 09/M04 A2987 RMK A01 T00901035  RH  041%=      5-min Rain = 0
KLE1 220107Z 12017KT 09/M04 A2987 RMK A01 T00901035  RH  041%=      5-min Rain = 0
KLE1 220108Z 12016KT 09/M04 A2987 RMK A01 T00901036  RH  041%=      5-min Rain = 0
KLE1 220109Z 11015KT 09/M04 A2987 RMK A01 T00891036  RH  041%=      5-min Rain = 0
KLE1 220110Z 11015KT 09/M04 A2987 RMK A01 T00891036  RH  041%=      5-min Rain = 0
KLE1 220111Z 11015KT 09/M04 A2987 RMK A01 T00881036  RH  041%=      5-min Rain = 0
KLE1 220112Z 11015KT 09/M04 A2987 RMK A01 T00881036  RH  042%=      5-min Rain = 0
KLE1 220113Z 11014KT 09/M04 A2988 RMK A01 T00871036  RH  042%=      5-min Rain = 0
KLE1 220114Z 11014KT 09/M04 A2988 RMK A01 T00871036  RH  042%=      5-min Rain = 0
KLE1 220115Z 11014KT 09/M04 A2988 RMK A01 T00861037  RH  042%=      5-min Rain = 0
KLE1 220116Z 11014KT 09/M04 A2988 RMK A01 T00851037  RH  042%=      5-min Rain = 0
KLE1 220117Z 10014KT 09/M04 A2988 RMK A01 T00851037  RH  042%=      5-min Rain = 0
KLE1 220118Z 11014KT 08/M04 A2988 RMK A01 T00841037  RH  042%=      5-min Rain = 0
KLE1 220119Z 11014KT 08/M04 A2988 RMK A01 T00831038  RH  042%=      5-min Rain = 0
KLE1 220120Z 11015KT 08/M04 A2988 RMK A01 T00821038  RH  042%=      5-min Rain = 0
KLE1 220121Z 11014KT 08/M04 A2988 RMK A01 T00811038  RH  043%=      5-min Rain = 0
KLE1 220122Z 11015KT 08/M04 A2988 RMK A01 T00811038  RH  043%=      5-min Rain = 0
KLE1 220123Z 11016KT 08/M04 A2988 RMK A01 T00811038  RH  043%=      5-min Rain = 0
KLE1 220124Z 11015KT 08/M04 A2988 RMK A01 T00811038  RH  043%=      5-min Rain = 0
KLE1 220125Z 11015KT 08/M04 A2988 RMK A01 T00821038  RH  043%=      5-min Rain = 0
KLE1 220126Z 11014KT 08/M04 A2988 RMK A01 T00821038  RH  043%=      5-min Rain = 0
KLE1 220127Z 11015KT 08/M04 A2988 RMK A01 T00811039  RH  043%=      5-min Rain = 0
KLE1 220128Z 11014KT 08/M04 A2988 RMK A01 T00811039  RH  043%=      5-min Rain = 0
KLE1 220129Z 11014KT 08/M04 A2988 RMK A01 T00801039  RH  043%=      5-min Rain = 0
KLE1 220130Z 10014KT 08/M04 A2988 RMK A01 T00791039  RH  043%=      5-min Rain = 0
KLE1 220131Z 10014KT 08/M04 A2988 RMK A01 T00791039  RH  043%=      5-min Rain = 0
KLE1 220132Z 10014KT 08/M04 A2988 RMK A01 T00781039  RH  043%=      5-min Rain = 0
KLE1 220133Z 10014KT 08/M04 A2988 RMK A01 T00781039  RH  043%=      5-min Rain = 0
KLE1 220134Z 11014KT 08/M04 A2988 RMK A01 T00771039  RH  043%=      5-min Rain = 0
KLE1 220135Z 10014KT 08/M04 A2988 RMK A01 T00771039  RH  044%=      5-min Rain = 0
KLE1 220136Z 10015KT 08/M04 A2988 RMK A01 T00771039  RH  044%=      5-min Rain = 0
KLE1 220137Z 10015KT 08/M04 A2988 RMK A01 T00771039  RH  044%=      5-min Rain = 0
KLE1 220138Z 10015KT 08/M04 A2988 RMK A01 T00771039  RH  044%=      5-min Rain = 0
KLE1 220139Z 10015KT 08/M04 A2988 RMK A01 T00771039  RH  043%=      5-min Rain = 0
KLE1 220140Z 10015KT 08/M04 A2988 RMK A01 T00771039  RH  043%=      5-min Rain = 0
KLE1 220141Z 10015KT 08/M04 A2988 RMK A01 T00771040  RH  044%=      5-min Rain = 0
KLE1 220142Z 10014KT 08/M04 A2988 RMK A01 T00761040  RH  044%=      5-min Rain = 0
KLE1 220143Z 10013KT 08/M04 A2988 RMK A01 T00751040  RH  044%=      5-min Rain = 0
KLE1 220144Z 10014KT 07/M04 A2988 RMK A01 T00741041  RH  044%=      5-min Rain = 0
KLE1 220145Z 10015KT 07/M04 A2988 RMK A01 T00741040  RH  044%=      5-min Rain = 0
KLE1 220146Z 11016KT 07/M04 A2988 RMK A01 T00741040  RH  044%=      5-min Rain = 0
KLE1 220147Z 10017KT 08/M04 A2988 RMK A01 T00751040  RH  044%=      5-min Rain = 0
KLE1 220148Z 11017KT 08/M04 A2988 RMK A01 T00761040  RH  044%=      5-min Rain = 0
KLE1 220149Z 11016KT 08/M04 A2988 RMK A01 T00761040  RH  044%=      5-min Rain = 0
KLE1 220150Z 11017KT 08/M04 A2988 RMK A01 T00761040  RH  044%=      5-min Rain = 0
KLE1 220151Z 11017KT 08/M04 A2988 RMK A01 T00751040  RH  044%=      5-min Rain = 0
KLE1 220152Z 11018KT 08/M04 A2989 RMK A01 T00761040  RH  044%=      5-min Rain = 0
KLE1 220153Z 11018KT 08/M04 A2989 RMK A01 T00761040  RH  044%=      5-min Rain = 0
KLE1 220154Z 11015KT 08/M04 A2989 RMK A01 T00761040  RH  044%=      5-min Rain = 0
KLE1 220155Z 11016KT 08/M04 A2989 RMK A01 T00751041  RH  044%=      5-min Rain = 0
KLE1 220156Z 10015KT 07/M04 A2989 RMK A01 T00741041  RH  044%=      5-min Rain = 0
KLE1 220157Z 10015KT 07/M04 A2989 RMK A01 T00741040  RH  044%=      5-min Rain = 0
KLE1 220158Z 10015KT 07/M04 A2989 RMK A01 T00731040  RH  044%=      5-min Rain = 0
KLE1 220159Z 10014KT 07/M04 A2989 RMK A01 T00731040  RH  044%=      5-min Rain = 0
KLE1 220200Z 10014KT 07/M04 A2989 RMK A01 T00721041  RH  045%=      5-min Rain = 0
KLE1 220201Z 10014KT 07/M04 A2989 RMK A01 T00711041  RH  045%=      5-min Rain = 0
KLE1 220202Z 10015KT 07/M04 A299 RMK A01 T00711040  RH  045%=      5-min Rain = 0
KLE1 220203Z 10014KT 07/M04 A299 RMK A01 T00701040  RH  045%=      5-min Rain = 0
KLE1 220204Z 10015KT 07/M04 A299 RMK A01 T00701040  RH  045%=      5-min Rain = 0
KLE1 220205Z 10014KT 07/M04 A299 RMK A01 T00701040  RH  045%=      5-min Rain = 0
KLE1 220206Z 10014KT 07/M04 A299 RMK A01 T00691040  RH  045%=      5-min Rain = 0
KLE1 220207Z 10014KT 07/M04 A299 RMK A01 T00691041  RH  046%=      5-min Rain = 0
KLE1 220208Z 10014KT 07/M04 A299 RMK A01 T00691040  RH  046%=      5-min Rain = 0
KLE1 220209Z 10015KT 07/M04 A299 RMK A01 T00691040  RH  046%=      5-min Rain = 0
KLE1 220210Z 10014KT 07/M04 A299 RMK A01 T00691040  RH  046%=      5-min Rain = 0
KLE1 220211Z 10014KT 07/M04 A299 RMK A01 T00681041  RH  046%=      5-min Rain = 0
KLE1 220212Z 10014KT 07/M04 A299 RMK A01 T00681041  RH  046%=      5-min Rain = 0
KLE1 220213Z 10014KT 07/M04 A299 RMK A01 T00671041  RH  046%=      5-min Rain = 0
KLE1 220214Z 10014KT 07/M04 A299 RMK A01 T00671041  RH  046%=      5-min Rain = 0
KLE1 220215Z 10014KT 07/M04 A299 RMK A01 T00661041  RH  046%=      5-min Rain = 0
KLE1 220216Z 10015KT 07/M04 A299 RMK A01 T00661041  RH  046%=      5-min Rain = 0
KLE1 220217Z 10015KT 07/M04 A299 RMK A01 T00661041  RH  046%=      5-min Rain = 0
KLE1 220218Z 10015KT 07/M04 A299 RMK A01 T00661041  RH  046%=      5-min Rain = 0
KLE1 220219Z 10014KT 07/M04 A299 RMK A01 T00661041  RH  046%=      5-min Rain = 0
KLE1 220220Z 10013KT 07/M04 A299 RMK A01 T00671041  RH  046%=      5-min Rain = 0
KLE1 220221Z 10014KT 07/M04 A299 RMK A01 T00661041  RH  046%=      5-min Rain = 0
KLE1 220222Z 10015KT 07/M04 A299 RMK A01 T00661041  RH  046%=      5-min Rain = 0
KLE1 220223Z 10014KT 07/M04 A299 RMK A01 T00661041  RH  046%=      5-min Rain = 0
KLE1 220224Z 10014KT 07/M04 A299 RMK A01 T00651041  RH  047%=      5-min Rain = 0
KLE1 220225Z 10014KT 06/M04 A299 RMK A01 T00641041  RH  047%=      5-min Rain = 0
KLE1 220226Z 10014KT 06/M04 A299 RMK A01 T00641041  RH  047%=      5-min Rain = 0
KLE1 220227Z 09014KT 06/M04 A299 RMK A01 T00641041  RH  047%=      5-min Rain = 0
KLE1 220228Z 09014KT 06/M04 A299 RMK A01 T00631041  RH  047%=      5-min Rain = 0
KLE1 220229Z 09013KT 06/M04 A299 RMK A01 T00621041  RH  047%=      5-min Rain = 0
KLE1 220230Z 09014KT 06/M04 A299 RMK A01 T00621041  RH  047%=      5-min Rain = 0
KLE1 220231Z 09014KT 06/M04 A299 RMK A01 T00621041  RH  048%=      5-min Rain = 0
KLE1 220232Z 10014KT 06/M04 A299 RMK A01 T00621041  RH  048%=      5-min Rain = 0
KLE1 220233Z 10015KT 06/M04 A299 RMK A01 T00621041  RH  048%=      5-min Rain = 0
KLE1 220234Z 10014KT 06/M04 A299 RMK A01 T00621041  RH  048%=      5-min Rain = 0
KLE1 220235Z 10014KT 06/M04 A299 RMK A01 T00621041  RH  047%=      5-min Rain = 0
KLE1 220236Z 10015KT 06/M04 A299 RMK A01 T00621041  RH  048%=      5-min Rain = 0
KLE1 220237Z 10014KT 06/M04 A299 RMK A01 T00621041  RH  048%=      5-min Rain = 0
KLE1 220238Z 10015KT 06/M04 A299 RMK A01 T00621041  RH  048%=      5-min Rain = 0
KLE1 220239Z 10014KT 06/M04 A299 RMK A01 T00611041  RH  048%=      5-min Rain = 0
KLE1 220240Z 10014KT 06/M04 A299 RMK A01 T00611041  RH  048%=      5-min Rain = 0
KLE1 220241Z 10014KT 06/M04 A299 RMK A01 T00611041  RH  048%=      5-min Rain = 0
KLE1 220242Z 10013KT 06/M04 A299 RMK A01 T00601041  RH  048%=      5-min Rain = 0
KLE1 220243Z 10013KT 06/M04 A2991 RMK A01 T00601041  RH  048%=      5-min Rain = 0
KLE1 220244Z 10012KT 06/M04 A2991 RMK A01 T00591041  RH  048%=      5-min Rain = 0
KLE1 220245Z 10012KT 06/M04 A2991 RMK A01 T00591041  RH  049%=      5-min Rain = 0
KLE1 220246Z 09013KT 06/M04 A2991 RMK A01 T00591041  RH  049%=      5-min Rain = 0
KLE1 220247Z 10013KT 06/M04 A2991 RMK A01 T00581041  RH  049%=      5-min Rain = 0
KLE1 220248Z 09013KT 06/M04 A2991 RMK A01 T00571041  RH  049%=      5-min Rain = 0
KLE1 220249Z 10013KT 06/M04 A2991 RMK A01 T00561041  RH  050%=      5-min Rain = 0
KLE1 220250Z 10013KT 06/M04 A2991 RMK A01 T00571040  RH  050%=      5-min Rain = 0
KLE1 220251Z 10013KT 06/M04 A2991 RMK A01 T00561040  RH  050%=      5-min Rain = 0
KLE1 220252Z 09013KT 06/M04 A2991 RMK A01 T00561040  RH  050%=      5-min Rain = 0
KLE1 220253Z 10013KT 06/M04 A2991 RMK A01 T00571040  RH  050%=      5-min Rain = 0
KLE1 220254Z 10012KT 06/M04 A2991 RMK A01 T00561040  RH  050%=      5-min Rain = 0
KLE1 220255Z 10014KT 06/M04 A2991 RMK A01 T00551040  RH  050%=      5-min Rain = 0
KLE1 220256Z 10013KT 06/M04 A2991 RMK A01 T00551040  RH  050%=      5-min Rain = 0
KLE1 220257Z 10013KT 06/M04 A2991 RMK A01 T00551040  RH  050%=      5-min Rain = 0
KLE1 220258Z 10013KT 06/M04 A2991 RMK A01 T00551040  RH  051%=      5-min Rain = 0
KLE1 220259Z 10013KT 06/M04 A2991 RMK A01 T00551040  RH  051%=      5-min Rain = 0
KLE1 220300Z 10013KT 06/M04 A2991 RMK A01 T00551040  RH  050%=      5-min Rain = 0
KLE1 220301Z 10013KT 06/M04 A2992 RMK A01 T00551040  RH  051%=      5-min Rain = 0
KLE1 220302Z 10013KT 05/M04 A2992 RMK A01 T00541040  RH  051%=      5-min Rain = 0
KLE1 220303Z 10013KT 05/M04 A2992 RMK A01 T00541040  RH  051%=      5-min Rain = 0
KLE1 220304Z 10013KT 05/M04 A2992 RMK A01 T00541040  RH  051%=      5-min Rain = 0
KLE1 220305Z 10013KT 05/M04 A2992 RMK A01 T00541039  RH  051%=      5-min Rain = 0
KLE1 220306Z 10012KT 05/M04 A2992 RMK A01 T00541039  RH  051%=      5-min Rain = 0
KLE1 220307Z 10012KT 05/M04 A2992 RMK A01 T00531040  RH  051%=      5-min Rain = 0
KLE1 220308Z 10012KT 05/M04 A2992 RMK A01 T00521040  RH  052%=      5-min Rain = 0
KLE1 220309Z 10012KT 05/M04 A2992 RMK A01 T00511039  RH  052%=      5-min Rain = 0
KLE1 220310Z 10012KT 05/M04 A2992 RMK A01 T00511039  RH  052%=      5-min Rain = 0
KLE1 220311Z 10013KT 05/M04 A2992 RMK A01 T00511039  RH  052%=      5-min Rain = 0
KLE1 220312Z 10012KT 05/M04 A2992 RMK A01 T00511039  RH  052%=      5-min Rain = 0
KLE1 220313Z 09012KT 05/M04 A2992 RMK A01 T00501039  RH  052%=      5-min Rain = 0
KLE1 220314Z 09012KT 05/M04 A2992 RMK A01 T00501039  RH  053%=      5-min Rain = 0
KLE1 220315Z 09012KT 05/M04 A2992 RMK A01 T00491039  RH  053%=      5-min Rain = 0
KLE1 220316Z 09011KT 05/M04 A2992 RMK A01 T00481039  RH  053%=      5-min Rain = 0
KLE1 220317Z 09012KT 05/M04 A2992 RMK A01 T00481039  RH  053%=      5-min Rain = 0
KLE1 220318Z 09012KT 05/M04 A2992 RMK A01 T00481039  RH  054%=      5-min Rain = 0
KLE1 220319Z 09012KT 05/M04 A2992 RMK A01 T00481038  RH  054%=      5-min Rain = 0
KLE1 220320Z 09012KT 05/M04 A2992 RMK A01 T00471039  RH  054%=      5-min Rain = 0
KLE1 220321Z 09013KT 05/M04 A2992 RMK A01 T00481038  RH  054%=      5-min Rain = 0
KLE1 220322Z 09013KT 05/M04 A2992 RMK A01 T00471039  RH  054%=      5-min Rain = 0
KLE1 220323Z 10012KT 05/M04 A2992 RMK A01 T00471039  RH  054%=      5-min Rain = 0
KLE1 220324Z 10013KT 05/M04 A2992 RMK A01 T00481038  RH  054%=      5-min Rain = 0
KLE1 220325Z 10013KT 05/M04 A2992 RMK A01 T00481038  RH  054%=      5-min Rain = 0
KLE1 220326Z 10014KT 05/M04 A2992 RMK A01 T00481038  RH  054%=      5-min Rain = 0
KLE1 220327Z 10014KT 05/M04 A2992 RMK A01 T00481038  RH  054%=      5-min Rain = 0
KLE1 220328Z 10014KT 05/M04 A2992 RMK A01 T00481038  RH  054%=      5-min Rain = 0
KLE1 220329Z 10014KT 05/M04 A2992 RMK A01 T00481038  RH  053%=      5-min Rain = 0
KLE1 220330Z 10015KT 05/M04 A2992 RMK A01 T00481038  RH  054%=      5-min Rain = 0
KLE1 220331Z 10015KT 05/M04 A2992 RMK A01 T00481038  RH  054%=      5-min Rain = 0
KLE1 220332Z 10014KT 05/M04 A2992 RMK A01 T00491037  RH  054%=      5-min Rain = 0
KLE1 220333Z 10014KT 05/M04 A2992 RMK A01 T00491037  RH  054%=      5-min Rain = 0
KLE1 220334Z 10014KT 05/M04 A2993 RMK A01 T00491037  RH  054%=      5-min Rain = 0
KLE1 220335Z 10014KT 05/M04 A2993 RMK A01 T00491037  RH  054%=      5-min Rain = 0
KLE1 220336Z 09014KT 05/M04 A2993 RMK A01 T00491037  RH  054%=      5-min Rain = 0
KLE1 220337Z 09013KT 05/M04 A2993 RMK A01 T00481037  RH  054%=      5-min Rain = 0
KLE1 220338Z 09014KT 05/M04 A2993 RMK A01 T00481037  RH  054%=      5-min Rain = 0
KLE1 220339Z 09015KT 05/M04 A2993 RMK A01 T00471037  RH  054%=      5-min Rain = 0
KLE1 220340Z 09014KT 05/M04 A2993 RMK A01 T00481037  RH  054%=      5-min Rain = 0
KLE1 220341Z 09015KT 05/M04 A2993 RMK A01 T00481036  RH  054%=      5-min Rain = 0
KLE1 220342Z 09014KT 05/M04 A2993 RMK A01 T00481036  RH  055%=      5-min Rain = 0
KLE1 220343Z 09013KT 05/M04 A2993 RMK A01 T00481036  RH  055%=      5-min Rain = 0
KLE1 220344Z 09013KT 05/M04 A2993 RMK A01 T00471036  RH  055%=      5-min Rain = 0
KLE1 220345Z 09014KT 05/M04 A2993 RMK A01 T00471036  RH  055%=      5-min Rain = 0
KLE1 220346Z 10013KT 05/M04 A2993 RMK A01 T00471035  RH  055%=      5-min Rain = 0
KLE1 220347Z 10014KT 05/M04 A2993 RMK A01 T00471036  RH  055%=      5-min Rain = 0
KLE1 220348Z 10014KT 05/M04 A2993 RMK A01 T00471035  RH  055%=      5-min Rain = 0
KLE1 220349Z 10014KT 05/M04 A2993 RMK A01 T00471035  RH  055%=      5-min Rain = 0
KLE1 220350Z 10014KT 05/M04 A2993 RMK A01 T00471035  RH  055%=      5-min Rain = 0
KLE1 220351Z 10014KT 05/M04 A2993 RMK A01 T00471035  RH  055%=      5-min Rain = 0
KLE1 220352Z 10013KT 05/M04 A2993 RMK A01 T00471035  RH  055%=      5-min Rain = 0
KLE1 220353Z 10014KT 05/M04 A2993 RMK A01 T00471035  RH  056%=      5-min Rain = 0
KLE1 220354Z 10013KT 05/M03 A2993 RMK A01 T00461034  RH  056%=      5-min Rain = 0
KLE1 220355Z 10015KT 05/M03 A2993 RMK A01 T00461034  RH  056%=      5-min Rain = 0
KLE1 220356Z 09014KT 05/M03 A2993 RMK A01 T00461033  RH  057%=      5-min Rain = 0
KLE1 220357Z 10014KT 05/M03 A2993 RMK A01 T00461033  RH  056%=      5-min Rain = 0
KLE1 220358Z 09014KT 05/M03 A2993 RMK A01 T00461033  RH  057%=      5-min Rain = 0
KLE1 220359Z 09014KT 05/M03 A2993 RMK A01 T00461033  RH  057%=      5-min Rain = 0
KLE1 220400Z 09015KT 05/M03 A2993 RMK A01 T00451033  RH  057%=      5-min Rain = 0
KLE1 220401Z 09014KT 05/M03 A2993 RMK A01 T00451032  RH  057%=      5-min Rain = 0
KLE1 220402Z 09014KT 05/M03 A2993 RMK A01 T00461032  RH  057%=      5-min Rain = 0
KLE1 220403Z 09014KT 05/M03 A2993 RMK A01 T00451032  RH  057%=      5-min Rain = 0
KLE1 220404Z 09014KT 05/M03 A2993 RMK A01 T00451032  RH  058%=      5-min Rain = 0
KLE1 220405Z 09013KT 05/M03 A2993 RMK A01 T00451031  RH  058%=      5-min Rain = 0
KLE1 220406Z 09014KT 05/M03 A2993 RMK A01 T00451031  RH  058%=      5-min Rain = 0
KLE1 220407Z 09013KT 05/M03 A2994 RMK A01 T00451031  RH  058%=      5-min Rain = 0
KLE1 220408Z 09013KT 04/M03 A2994 RMK A01 T00441031  RH  058%=      5-min Rain = 0
KLE1 220409Z 09013KT 04/M03 A2994 RMK A01 T00441031  RH  058%=      5-min Rain = 0
KLE1 220410Z 09012KT 04/M03 A2994 RMK A01 T00441031  RH  058%=      5-min Rain = 0
KLE1 220411Z 08012KT 04/M03 A2994 RMK A01 T00431031  RH  059%=      5-min Rain = 0
KLE1 220412Z 09012KT 04/M03 A2994 RMK A01 T00431031  RH  059%=      5-min Rain = 0
KLE1 220413Z 09012KT 04/M03 A2994 RMK A01 T00421030  RH  059%=      5-min Rain = 0
KLE1 220414Z 09012KT 04/M03 A2994 RMK A01 T00421030  RH  060%=      5-min Rain = 0
KLE1 220415Z 09012KT 04/M03 A2994 RMK A01 T00421029  RH  060%=      5-min Rain = 0
KLE1 220416Z 08012KT 04/M03 A2994 RMK A01 T00421029  RH  060%=      5-min Rain = 0
KLE1 220417Z 08012KT 04/M03 A2994 RMK A01 T00421028  RH  060%=      5-min Rain = 0
KLE1 220418Z 08011KT 04/M03 A2994 RMK A01 T00421028  RH  060%=      5-min Rain = 0
KLE1 220419Z 08011KT 04/M03 A2995 RMK A01 T00421028  RH  060%=      5-min Rain = 0
KLE1 220420Z 08011KT 04/M03 A2995 RMK A01 T00421028  RH  060%=      5-min Rain = 0
KLE1 220421Z 08011KT 04/M03 A2995 RMK A01 T00411028  RH  061%=      5-min Rain = 0
KLE1 220422Z 08012KT 04/M03 A2995 RMK A01 T00411028  RH  061%=      5-min Rain = 0
KLE1 220423Z 08012KT 04/M03 A2995 RMK A01 T00401028  RH  061%=      5-min Rain = 0
KLE1 220424Z 08011KT 04/M03 A2995 RMK A01 T00401027  RH  061%=      5-min Rain = 0
KLE1 220425Z 08011KT 04/M03 A2995 RMK A01 T00391028  RH  062%=      5-min Rain = 0
KLE1 220426Z 08012KT 04/M03 A2995 RMK A01 T00401027  RH  062%=      5-min Rain = 0
KLE1 220427Z 08011KT 04/M03 A2995 RMK A01 T00401026  RH  062%=      5-min Rain = 0
KLE1 220428Z 08011KT 04/M03 A2995 RMK A01 T00391026  RH  062%=      5-min Rain = 0
KLE1 220429Z 08011KT 04/M03 A2995 RMK A01 T00401026  RH  062%=      5-min Rain = 0
KLE1 220430Z 08011KT 04/M03 A2995 RMK A01 T00391026  RH  062%=      5-min Rain = 0
KLE1 220431Z 08010KT 04/M03 A2995 RMK A01 T00391026  RH  063%=      5-min Rain = 0
KLE1 220432Z 08011KT 04/M03 A2995 RMK A01 T00381027  RH  063%=      5-min Rain = 0
KLE1 220433Z 08011KT 04/M03 A2995 RMK A01 T00381026  RH  063%=      5-min Rain = 0
KLE1 220434Z 08012KT 04/M03 A2995 RMK A01 T00381026  RH  063%=      5-min Rain = 0
KLE1 220435Z 08011KT 04/M03 A2995 RMK A01 T00381026  RH  063%=      5-min Rain = 0
KLE1 220436Z 08012KT 04/M03 A2995 RMK A01 T00381026  RH  063%=      5-min Rain = 0
KLE1 220437Z 08012KT 04/M03 A2995 RMK A01 T00371026  RH  063%=      5-min Rain = 0
KLE1 220438Z 08011KT 04/M03 A2995 RMK A01 T00371025  RH  063%=      5-min Rain = 0
KLE1 220439Z 08012KT 04/M03 A2995 RMK A01 T00371026  RH  064%=      5-min Rain = 0
KLE1 220440Z 08013KT 04/M03 A2995 RMK A01 T00371025  RH  064%=      5-min Rain = 0
KLE1 220441Z 08012KT 04/M03 A2995 RMK A01 T00371025  RH  064%=      5-min Rain = 0
KLE1 220442Z 08013KT 04/M03 A2995 RMK A01 T00361026  RH  064%=      5-min Rain = 0
KLE1 220443Z 08013KT 04/M03 A2994 RMK A01 T00361025  RH  064%=      5-min Rain = 0
KLE1 220444Z 08012KT 04/M02 A2995 RMK A01 T00361024  RH  065%=      5-min Rain = 0
KLE1 220445Z 08012KT 04/M02 A2995 RMK A01 T00361024  RH  065%=      5-min Rain = 0
KLE1 220446Z 08012KT 04/M02 A2995 RMK A01 T00361024  RH  065%=      5-min Rain = 0
KLE1 220447Z 09013KT 04/M02 A2995 RMK A01 T00351024  RH  065%=      5-min Rain = 0
KLE1 220448Z 09013KT 04/M02 A2995 RMK A01 T00351024  RH  066%=      5-min Rain = 0
KLE1 220449Z 09012KT 04/M02 A2995 RMK A01 T00351023  RH  066%=      5-min Rain = 0
KLE1 220450Z 09012KT 04/M02 A2995 RMK A01 T00351023  RH  066%=      5-min Rain = 0
KLE1 220451Z 09012KT 04/M02 A2995 RMK A01 T00351022  RH  066%=      5-min Rain = 0
KLE1 220452Z 09012KT 04/M02 A2995 RMK A01 T00351022  RH  066%=      5-min Rain = 0
KLE1 220453Z 09012KT 03/M02 A2995 RMK A01 T00341022  RH  067%=      5-min Rain = 0
KLE1 220454Z 09012KT 03/M02 A2995 RMK A01 T00341021  RH  067%=      5-min Rain = 0
KLE1 220455Z 09012KT 03/M02 A2995 RMK A01 T00341021  RH  068%=      5-min Rain = 0
KLE1 220456Z 09013KT 03/M02 A2995 RMK A01 T00331021  RH  068%=      5-min Rain = 0
KLE1 220457Z 08013KT 03/M02 A2995 RMK A01 T00341019  RH  068%=      5-min Rain = 0
KLE1 220458Z 09013KT 03/M02 A2995 RMK A01 T00341019  RH  068%=      5-min Rain = 0
KLE1 220459Z 09013KT 03/M02 A2995 RMK A01 T00341019  RH  068%=      5-min Rain = 0
KLE1 220500Z 09013KT 03/M02 A2995 RMK A01 T00341019  RH  068%=      5-min Rain = 0
KLE1 220501Z 09013KT 03/M02 A2995 RMK A01 T00341018  RH  069%=      5-min Rain = 0
KLE1 220502Z 09012KT 03/M02 A2995 RMK A01 T00341018  RH  069%=      5-min Rain = 0
KLE1 220503Z 08012KT 03/M02 A2995 RMK A01 T00331018  RH  069%=      5-min Rain = 0
KLE1 220504Z 08012KT 03/M02 A2995 RMK A01 T00331019  RH  069%=      5-min Rain = 0
KLE1 220505Z 09012KT 03/M02 A2995 RMK A01 T00331018  RH  069%=      5-min Rain = 0
KLE1 220506Z 08012KT 03/M02 A2994 RMK A01 T00321019  RH  069%=      5-min Rain = 0
KLE1 220507Z 09012KT 03/M02 A2994 RMK A01 T00321019  RH  070%=      5-min Rain = 0
KLE1 220508Z 08012KT 03/M02 A2994 RMK A01 T00311019  RH  070%=      5-min Rain = 0
KLE1 220509Z 08013KT 03/M02 A2994 RMK A01 T00311019  RH  070%=      5-min Rain = 0
KLE1 220510Z 09012KT 03/M02 A2994 RMK A01 T00311019  RH  070%=      5-min Rain = 0
KLE1 220511Z 08013KT 03/M02 A2994 RMK A01 T00301020  RH  070%=      5-min Rain = 0
KLE1 220512Z 08013KT 03/M02 A2994 RMK A01 T00301020  RH  070%=      5-min Rain = 0
KLE1 220513Z 09013KT 03/M02 A2994 RMK A01 T00301020  RH  070%=      5-min Rain = 0
KLE1 220514Z 09013KT 03/M02 A2994 RMK A01 T00301020  RH  070%=      5-min Rain = 0
KLE1 220515Z 09014KT 03/M02 A2994 RMK A01 T00301020  RH  070%=      5-min Rain = 0
KLE1 220516Z 09013KT 03/M02 A2994 RMK A01 T00301020  RH  070%=      5-min Rain = 0
KLE1 220517Z 09013KT 03/M02 A2994 RMK A01 T00301020  RH  070%=      5-min Rain = 0
KLE1 220518Z 08013KT 03/M02 A2994 RMK A01 T00301019  RH  070%=      5-min Rain = 0
KLE1 220519Z 09013KT 03/M02 A2994 RMK A01 T00301019  RH  070%=      5-min Rain = 0
KLE1 220520Z 09013KT 03/M02 A2994 RMK A01 T00291019  RH  070%=      5-min Rain = 0
KLE1 220521Z 08013KT 03/M02 A2994 RMK A01 T00291019  RH  071%=      5-min Rain = 0
KLE1 220522Z 08013KT 03/M02 A2994 RMK A01 T00281018  RH  071%=      5-min Rain = 0
KLE1 220523Z 09013KT 03/M02 A2994 RMK A01 T00291017  RH  072%=      5-min Rain = 0
KLE1 220524Z 09013KT 03/M02 A2994 RMK A01 T00291017  RH  072%=      5-min Rain = 0
KLE1 220525Z 08012KT 03/M02 A2994 RMK A01 T00291016  RH  072%=      5-min Rain = 0
KLE1 220526Z 09011KT 03/M02 A2994 RMK A01 T00291016  RH  072%=      5-min Rain = 0
KLE1 220527Z 08012KT 03/M02 A2994 RMK A01 T00291016  RH  072%=      5-min Rain = 0
KLE1 220528Z 08012KT 03/M02 A2994 RMK A01 T00291015  RH  073%=      5-min Rain = 0
KLE1 220529Z 09012KT 03/M02 A2994 RMK A01 T00291015  RH  073%=      5-min Rain = 0
KLE1 220530Z 09012KT 03/M02 A2994 RMK A01 T00291015  RH  073%=      5-min Rain = 0
KLE1 220531Z 08013KT 03/M01 A2994 RMK A01 T00281014  RH  073%=      5-min Rain = 0
KLE1 220532Z 08012KT 03/M02 A2994 RMK A01 T00281015  RH  074%=      5-min Rain = 0
KLE1 220533Z 08012KT 03/M01 A2994 RMK A01 T00281014  RH  074%=      5-min Rain = 0
KLE1 220534Z 08012KT 03/M01 A2994 RMK A01 T00281014  RH  074%=      5-min Rain = 0
KLE1 220535Z 08012KT 03/M02 A2993 RMK A01 T00271015  RH  074%=      5-min Rain = 0
KLE1 220536Z 09012KT 03/M01 A2993 RMK A01 T00271014  RH  075%=      5-min Rain = 0
KLE1 220537Z 09012KT 03/M01 A2993 RMK A01 T00261014  RH  074%=      5-min Rain = 0
KLE1 220538Z 09012KT 03/M01 A2993 RMK A01 T00261014  RH  075%=      5-min Rain = 0
KLE1 220539Z 09012KT 03/M01 A2993 RMK A01 T00261014  RH  075%=      5-min Rain = 0
KLE1 220540Z 09012KT 03/M01 A2993 RMK A01 T00251014  RH  075%=      5-min Rain = 0
KLE1 220541Z 09012KT 03/M01 A2993 RMK A01 T00251014  RH  075%=      5-min Rain = 0
KLE1 220542Z 08012KT 03/M01 A2993 RMK A01 T00261013  RH  076%=      5-min Rain = 0
KLE1 220543Z 09012KT 03/M01 A2993 RMK A01 T00251014  RH  075%=      5-min Rain = 0
KLE1 220544Z 09012KT 02/M01 A2993 RMK A01 T00241014  RH  076%=      5-min Rain = 0
KLE1 220545Z 09013KT 02/M01 A2993 RMK A01 T00241014  RH  076%=      5-min Rain = 0
KLE1 220546Z 09013KT 02/M01 A2993 RMK A01 T00241014  RH  076%=      5-min Rain = 0
KLE1 220547Z 09012KT 02/M01 A2993 RMK A01 T00241013  RH  076%=      5-min Rain = 0
KLE1 220548Z 09012KT 02/M01 A2993 RMK A01 T00241013  RH  076%=      5-min Rain = 0
KLE1 220549Z 09012KT 02/M01 A2993 RMK A01 T00241013  RH  077%=      5-min Rain = 0
KLE1 220550Z 09012KT 02/M01 A2993 RMK A01 T00241012  RH  077%=      5-min Rain = 0
KLE1 220551Z 09012KT 02/M01 A2993 RMK A01 T00241012  RH  077%=      5-min Rain = 0
KLE1 220552Z 09011KT 02/M01 A2993 RMK A01 T00241012  RH  077%=      5-min Rain = 0
KLE1 220553Z 09010KT 02/M01 A2993 RMK A01 T00241013  RH  077%=      5-min Rain = 0
KLE1 220554Z 08011KT 02/M01 A2994 RMK A01 T00231013  RH  077%=      5-min Rain = 0
KLE1 220555Z 08011KT 02/M01 A2994 RMK A01 T00231012  RH  078%=      5-min Rain = 0
KLE1 220556Z 08010KT 02/M01 A2994 RMK A01 T00231012  RH  078%=      5-min Rain = 0
KLE1 220557Z 08010KT 02/M01 A2994 RMK A01 T00231011  RH  078%=      5-min Rain = 0
KLE1 220558Z 08010KT 02/M01 A2994 RMK A01 T00231011  RH  078%=      5-min Rain = 0
KLE1 220559Z 08011KT 02/M01 A2994 RMK A01 T00231010  RH  078%=      5-min Rain = 0

Page generated in 0.0763 seconds.